Wetterdaten: Mittwoch, 11.04.2018
Datum Zeit Temp. Aussen Temp. o. S. +5cm Feuchte Auss BlattFeu 1 Luftdruck Regen Sonnenschein Regendauer Solar Windben Empfang
11.04.2018 00:00 11,9 C 11,1 C 10,0 C 96 % 15 lf 1003,9 hPa 0,0 l/m 0 min 2 min 0 W/m 20,3 km/h (4 Bft) 97,83 %
11.04.2018 00:02 11,9 C 11,1 C 10,0 C 96 % 15 lf 1003,8 hPa 0,0 l/m 0 min 2 min 0 W/m 15,8 km/h (3 Bft) 10,00 %
11.04.2018 00:04 11,9 C 11,1 C 10,0 C 96 % 15 lf 1003,8 hPa 0,0 l/m 0 min 2 min 0 W/m 18,0 km/h (3 Bft) 87,50 %
11.04.2018 00:08 11,8 C 10,6 C 10,0 C 96 % 15 lf 1003,9 hPa 0,0 l/m 0 min 4 min 0 W/m 18,0 km/h (3 Bft) 87,50 %
11.04.2018 00:11 11,8 C 10,6 C 10,0 C 96 % 15 lf 1003,9 hPa 0,0 l/m 0 min 3 min 0 W/m 18,0 km/h (3 Bft) 98,82 %
11.04.2018 00:12 11,8 C 10,6 C 10,0 C 96 % 15 lf 1003,9 hPa 0,0 l/m 0 min 1 min 0 W/m 11,3 km/h (2 Bft) 100,00 %
11.04.2018 00:14 11,7 C 10,6 C 10,0 C 96 % 15 lf 1003,8 hPa 0,2 l/m 0 min 2 min 0 W/m 18,0 km/h (3 Bft) 100,00 %
11.04.2018 00:16 11,7 C 10,6 C 10,0 C 96 % 15 lf 1003,7 hPa 0,0 l/m 0 min 2 min 0 W/m 22,5 km/h (4 Bft) 95,74 %
11.04.2018 00:18 11,7 C 10,6 C 10,0 C 96 % 15 lf 1003,5 hPa 0,0 l/m 0 min 2 min 0 W/m 22,5 km/h (4 Bft) 100,00 %
11.04.2018 00:20 11,7 C 10,6 C 10,0 C 96 % 15 lf 1003,4 hPa 0,0 l/m 0 min 2 min 0 W/m 22,5 km/h (4 Bft) 97,83 %
11.04.2018 00:22 11,7 C 10,6 C 10,0 C 96 % 15 lf 1003,3 hPa 0,0 l/m 0 min 2 min 0 W/m 24,8 km/h (4 Bft) 100,00 %
11.04.2018 00:24 11,7 C 10,6 C 10,0 C 96 % 15 lf 1003,2 hPa 0,0 l/m 0 min 2 min 0 W/m 29,3 km/h (5 Bft) 97,87 %
11.04.2018 00:26 11,7 C 10,6 C 10,0 C 96 % 15 lf 1003,1 hPa 0,0 l/m 0 min 2 min 0 W/m 31,5 km/h (5 Bft) 97,87 %
11.04.2018 00:28 11,7 C 10,6 C 10,0 C 96 % 15 lf 1003,0 hPa 0,2 l/m 0 min 2 min 0 W/m 27,0 km/h (4 Bft) 100,00 %
11.04.2018 00:30 11,6 C 10,6 C 10,0 C 96 % 15 lf 1003,0 hPa 0,0 l/m 0 min 2 min 0 W/m 31,5 km/h (5 Bft) 95,74 %
11.04.2018 00:32 11,6 C 10,6 C 10,0 C 96 % 15 lf 1003,1 hPa 0,0 l/m 0 min 2 min 0 W/m 33,8 km/h (5 Bft) 97,83 %
11.04.2018 00:34 11,6 C 10,6 C 10,0 C 96 % 15 lf 1003,0 hPa 0,0 l/m 0 min 2 min 0 W/m 36,0 km/h (5 Bft) 97,87 %
11.04.2018 00:38 11,4 C 10,0 C 9,4 C 96 % 15 lf 1002,9 hPa 0,2 l/m 0 min 4 min 0 W/m 38,3 km/h (5 Bft) 98,94 %
11.04.2018 00:40 11,3 C 10,0 C 9,4 C 96 % 15 lf 1002,9 hPa 0,0 l/m 0 min 2 min 0 W/m 22,5 km/h (4 Bft) 97,87 %
11.04.2018 00:42 11,3 C 10,0 C 9,4 C 96 % 15 lf 1003,0 hPa 0,0 l/m 0 min 2 min 0 W/m 22,5 km/h (4 Bft) 100,00 %
11.04.2018 00:44 11,2 C 10,0 C 9,4 C 96 % 15 lf 1003,1 hPa 0,0 l/m 0 min 2 min 0 W/m 13,5 km/h (3 Bft) 100,00 %
11.04.2018 00:46 11,2 C 10,0 C 9,4 C 96 % 15 lf 1003,3 hPa 0,0 l/m 0 min 2 min 0 W/m 15,8 km/h (3 Bft) 95,74 %
11.04.2018 00:48 11,2 C 10,0 C 9,4 C 96 % 15 lf 1003,4 hPa 0,0 l/m 0 min 2 min 0 W/m 11,3 km/h (2 Bft) 97,87 %
11.04.2018 00:50 11,2 C 10,0 C 9,4 C 96 % 15 lf 1003,6 hPa 0,0 l/m 0 min 2 min 0 W/m 11,3 km/h (2 Bft) 96,61 %
11.04.2018 00:52 11,2 C 10,0 C 9,4 C 96 % 15 lf 1003,6 hPa 0,0 l/m 0 min 2 min 0 W/m 11,3 km/h (2 Bft) 97,14 %
11.04.2018 00:54 11,1 C 10,0 C 9,4 C 96 % 15 lf 1003,5 hPa 0,0 l/m 0 min 0 min 0 W/m 11,3 km/h (2 Bft) 97,87 %
11.04.2018 00:56 11,1 C 10,0 C 9,4 C 96 % 15 lf 1003,4 hPa 0,0 l/m 0 min 2 min 0 W/m 9,0 km/h (2 Bft) 97,83 %
11.04.2018 00:58 11,1 C 10,0 C 9,4 C 96 % 15 lf 1003,5 hPa 0,0 l/m 0 min 2 min 0 W/m 15,8 km/h (3 Bft) 97,87 %
11.04.2018 01:00 11,1 C 10,0 C 9,4 C 96 % 15 lf 1003,5 hPa 0,0 l/m 0 min 2 min 0 W/m 13,5 km/h (3 Bft) 93,62 %
11.04.2018 01:02 11,1 C 10,0 C 9,4 C 96 % 15 lf 1003,7 hPa 0,0 l/m 0 min 2 min 0 W/m 13,5 km/h (3 Bft) 95,74 %
11.04.2018 01:04 11,0 C 10,0 C 9,4 C 96 % 15 lf 1003,8 hPa 0,0 l/m 0 min 2 min 0 W/m 6,8 km/h (2 Bft) 97,87 %
11.04.2018 01:08 11,0 C 10,0 C 9,4 C 96 % 15 lf 1003,8 hPa 0,2 l/m 0 min 4 min 0 W/m 6,8 km/h (2 Bft) 97,85 %
11.04.2018 01:10 11,0 C 10,0 C 9,4 C 96 % 15 lf 1003,8 hPa 0,0 l/m 0 min 2 min 0 W/m 9,0 km/h (2 Bft) 95,74 %
11.04.2018 01:12 10,9 C 10,0 C 9,4 C 96 % 15 lf 1003,9 hPa 0,0 l/m 0 min 0 min 0 W/m 6,8 km/h (2 Bft) 95,74 %
11.04.2018 01:14 10,9 C 10,0 C 9,4 C 96 % 15 lf 1003,9 hPa 0,0 l/m 0 min 0 min 0 W/m 2,3 km/h (1 Bft) 97,87 %
11.04.2018 01:16 10,9 C 10,0 C 9,4 C 96 % 15 lf 1003,9 hPa 0,0 l/m 0 min 0 min 0 W/m 6,8 km/h (2 Bft) 95,74 %
11.04.2018 01:18 10,9 C 10,0 C 9,4 C 96 % 15 lf 1003,9 hPa 0,0 l/m 0 min 0 min 0 W/m 4,5 km/h (1 Bft) 95,65 %
11.04.2018 01:20 10,9 C 10,0 C 9,4 C 96 % 15 lf 1004,0 hPa 0,0 l/m 0 min 0 min 0 W/m 6,8 km/h (2 Bft) 97,87 %
11.04.2018 01:22 10,9 C 10,0 C 9,4 C 96 % 15 lf 1004,0 hPa 0,0 l/m 0 min 0 min 0 W/m 6,8 km/h (2 Bft) 93,62 %
11.04.2018 01:24 10,9 C 10,0 C 9,4 C 96 % 15 lf 1003,9 hPa 0,0 l/m 0 min 0 min 0 W/m 6,8 km/h (2 Bft) 97,87 %
11.04.2018 01:26 10,9 C 10,0 C 9,4 C 96 % 15 lf 1004,0 hPa 0,0 l/m 0 min 0 min 0 W/m 6,8 km/h (2 Bft) 93,62 %
11.04.2018 01:28 10,8 C 10,0 C 9,4 C 96 % 15 lf 1003,9 hPa 0,0 l/m 0 min 0 min 0 W/m 9,0 km/h (2 Bft) 95,74 %
11.04.2018 01:30 10,8 C 10,0 C 9,4 C 96 % 15 lf 1003,9 hPa 0,0 l/m 0 min 0 min 0 W/m 9,0 km/h (2 Bft) 95,65 %
11.04.2018 01:32 10,8 C 10,0 C 9,4 C 95 % 15 lf 1004,0 hPa 0,0 l/m 0 min 0 min 0 W/m 6,8 km/h (2 Bft) 95,74 %
11.04.2018 01:34 10,8 C 10,0 C 9,4 C 95 % 15 lf 1003,9 hPa 0,0 l/m 0 min 0 min 0 W/m 9,0 km/h (2 Bft) 93,62 %
11.04.2018 01:38 10,8 C 10,0 C 9,4 C 95 % 15 lf 1004,0 hPa 0,0 l/m 0 min 0 min 0 W/m 11,3 km/h (2 Bft) 96,81 %
11.04.2018 01:40 10,7 C 10,0 C 9,4 C 95 % 15 lf 1004,0 hPa 0,0 l/m 0 min 0 min 0 W/m 9,0 km/h (2 Bft) 97,87 %
11.04.2018 01:42 10,7 C 9,4 C 9,4 C 95 % 15 lf 1003,9 hPa 0,0 l/m 0 min 0 min 0 W/m 4,5 km/h (1 Bft) 93,48 %
11.04.2018 01:44 10,7 C 9,4 C 9,4 C 95 % 15 lf 1003,9 hPa 0,0 l/m 0 min 0 min 0 W/m 6,8 km/h (2 Bft) 93,62 %
11.04.2018 01:46 10,7 C 9,4 C 9,4 C 95 % 15 lf 1004,0 hPa 0,0 l/m 0 min 0 min 0 W/m 6,8 km/h (2 Bft) 97,87 %
11.04.2018 01:48 10,7 C 9,4 C 9,4 C 95 % 15 lf 1004,0 hPa 0,0 l/m 0 min 0 min 0 W/m 9,0 km/h (2 Bft) 97,87 %
11.04.2018 01:50 10,7 C 9,4 C 9,4 C 95 % 15 lf 1004,1 hPa 0,0 l/m 0 min 0 min 0 W/m 6,8 km/h (2 Bft) 98,28 %
11.04.2018 01:52 10,7 C 10,0 C 9,4 C 95 % 15 lf 1004,0 hPa 0,0 l/m 0 min 0 min 0 W/m 9,0 km/h (2 Bft) 94,44 %
11.04.2018 01:54 10,7 C 10,0 C 9,4 C 95 % 15 lf 1004,0 hPa 0,0 l/m 0 min 0 min 0 W/m 6,8 km/h (2 Bft) 97,83 %
11.04.2018 01:56 10,7 C 10,0 C 9,4 C 95 % 15 lf 1004,1 hPa 0,0 l/m 0 min 0 min 0 W/m 6,8 km/h (2 Bft) 97,87 %
11.04.2018 01:58 10,7 C 10,0 C 9,4 C 95 % 15 lf 1004,0 hPa 0,0 l/m 0 min 0 min 0 W/m 6,8 km/h (2 Bft) 95,74 %
11.04.2018 02:00 10,7 C 10,0 C 9,4 C 95 % 15 lf 1004,1 hPa 0,0 l/m 0 min 0 min 0 W/m 11,3 km/h (2 Bft) 95,74 %
11.04.2018 02:02 10,7 C 10,0 C 9,4 C 95 % 15 lf 1004,1 hPa 0,0 l/m 0 min 0 min 0 W/m 9,0 km/h (2 Bft) 97,87 %
11.04.2018 02:04 10,7 C 10,0 C 9,4 C 95 % 15 lf 1004,0 hPa 0,0 l/m 0 min 0 min 0 W/m 9,0 km/h (2 Bft) 97,87 %
11.04.2018 02:08 10,7 C 10,0 C 9,4 C 95 % 15 lf 1004,0 hPa 0,0 l/m 0 min 0 min 0 W/m 13,5 km/h (3 Bft) 97,92 %
11.04.2018 02:10 10,7 C 10,0 C 9,4 C 95 % 15 lf 1004,0 hPa 0,0 l/m 0 min 0 min 0 W/m 13,5 km/h (3 Bft) 95,74 %
11.04.2018 02:12 10,7 C 9,4 C 9,4 C 95 % 15 lf 1004,0 hPa 0,0 l/m 0 min 0 min 0 W/m 9,0 km/h (2 Bft) 95,74 %
11.04.2018 02:14 10,7 C 9,4 C 9,4 C 95 % 15 lf 1003,9 hPa 0,0 l/m 0 min 0 min 0 W/m 11,3 km/h (2 Bft) 95,74 %
11.04.2018 02:16 10,6 C 9,4 C 9,4 C 95 % 15 lf 1003,8 hPa 0,0 l/m 0 min 0 min 0 W/m 9,0 km/h (2 Bft) 97,83 %
11.04.2018 02:18 10,6 C 9,4 C 9,4 C 95 % 15 lf 1003,8 hPa 0,0 l/m 0 min 0 min 0 W/m 6,8 km/h (2 Bft) 95,74 %
11.04.2018 02:20 10,6 C 9,4 C 9,4 C 95 % 15 lf 1003,9 hPa 0,0 l/m 0 min 0 min 0 W/m 6,8 km/h (2 Bft) 95,74 %
11.04.2018 02:22 10,6 C 9,4 C 9,4 C 95 % 15 lf 1003,9 hPa 0,0 l/m 0 min 0 min 0 W/m 9,0 km/h (2 Bft) 95,74 %
11.04.2018 02:24 10,6 C 9,4 C 9,4 C 95 % 15 lf 1004,0 hPa 0,0 l/m 0 min 0 min 0 W/m 9,0 km/h (2 Bft) 95,74 %
11.04.2018 02:26 10,6 C 9,4 C 9,4 C 95 % 15 lf 1004,0 hPa 0,0 l/m 0 min 0 min 0 W/m 6,8 km/h (2 Bft) 95,74 %
11.04.2018 02:28 10,6 C 9,4 C 9,4 C 95 % 15 lf 1003,9 hPa 0,0 l/m 0 min 0 min 0 W/m 6,8 km/h (2 Bft) 95,65 %
11.04.2018 02:30 10,6 C 10,0 C 9,4 C 95 % 15 lf 1004,0 hPa 0,0 l/m 0 min 0 min 0 W/m 6,8 km/h (2 Bft) 95,74 %
11.04.2018 02:32 10,6 C 10,0 C 9,4 C 95 % 15 lf 1004,0 hPa 0,0 l/m 0 min 0 min 0 W/m 6,8 km/h (2 Bft) 95,74 %
11.04.2018 02:34 10,6 C 10,0 C 9,4 C 96 % 15 lf 1004,0 hPa 0,0 l/m 0 min 0 min 0 W/m 0,0 km/h (0 Bft) 93,62 %
11.04.2018 02:38 10,6 C 10,0 C 9,4 C 96 % 15 lf 1004,0 hPa 0,0 l/m 0 min 0 min 0 W/m 0,0 km/h (0 Bft) 94,68 %
11.04.2018 02:40 10,6 C 10,0 C 9,4 C 96 % 15 lf 1004,0 hPa 0,0 l/m 0 min 0 min 0 W/m 0,0 km/h (0 Bft) 93,48 %
11.04.2018 02:42 10,6 C 10,0 C 9,4 C 96 % 15 lf 1004,0 hPa 0,0 l/m 0 min 0 min 0 W/m 0,0 km/h (0 Bft) 91,49 %
11.04.2018 02:44 10,6 C 10,0 C 9,4 C 96 % 15 lf 1004,0 hPa 0,0 l/m 0 min 0 min 0 W/m 0,0 km/h (0 Bft) 93,62 %
11.04.2018 02:46 10,6 C 10,0 C 9,4 C 96 % 15 lf 1004,0 hPa 0,0 l/m 0 min 0 min 0 W/m 0,0 km/h (0 Bft) 95,65 %
11.04.2018 02:48 10,6 C 10,0 C 9,4 C 96 % 15 lf 1004,0 hPa 0,0 l/m 0 min 0 min 0 W/m 0,0 km/h (0 Bft) 95,74 %
11.04.2018 02:50 10,6 C 10,0 C 9,4 C 96 % 15 lf 1004,1 hPa 0,0 l/m 0 min 0 min 0 W/m 0,0 km/h (0 Bft) 95,74 %
11.04.2018 02:52 10,6 C 10,0 C 9,4 C 96 % 15 lf 1004,1 hPa 0,0 l/m 0 min 0 min 0 W/m 0,0 km/h (0 Bft) 97,83 %
11.04.2018 02:54 10,6 C 10,0 C 9,4 C 96 % 15 lf 1004,1 hPa 0,0 l/m 0 min 0 min 0 W/m 0,0 km/h (0 Bft) 97,87 %
11.04.2018 02:56 10,6 C 10,0 C 9,4 C 96 % 15 lf 1004,3 hPa 0,0 l/m 0 min 0 min 0 W/m 0,0 km/h (0 Bft) 97,87 %
11.04.2018 02:58 10,6 C 10,0 C 9,4 C 96 % 15 lf 1004,3 hPa 0,0 l/m 0 min 0 min 0 W/m 0,0 km/h (0 Bft) 97,87 %
11.04.2018 03:00 10,6 C 10,0 C 9,4 C 96 % 15 lf 1004,3 hPa 0,0 l/m 0 min 0 min 0 W/m 0,0 km/h (0 Bft) 93,62 %
11.04.2018 03:02 10,6 C 10,0 C 9,4 C 96 % 15 lf 1004,3 hPa 0,0 l/m 0 min 0 min 0 W/m 0,0 km/h (0 Bft) 95,65 %
11.04.2018 03:04 10,6 C 10,0 C 9,4 C 96 % 15 lf 1004,3 hPa 0,0 l/m 0 min 0 min 0 W/m 0,0 km/h (0 Bft) 97,87 %
11.04.2018 03:08 10,6 C 10,0 C 9,4 C 96 % 15 lf 1004,4 hPa 0,0 l/m 0 min 0 min 0 W/m 6,8 km/h (2 Bft) 96,81 %
11.04.2018 03:10 10,6 C 10,0 C 9,4 C 96 % 15 lf 1004,4 hPa 0,0 l/m 0 min 0 min 0 W/m 9,0 km/h (2 Bft) 97,87 %
11.04.2018 03:12 10,6 C 10,0 C 9,4 C 96 % 15 lf 1004,5 hPa 0,0 l/m 0 min 0 min 0 W/m 11,3 km/h (2 Bft) 95,74 %
11.04.2018 03:14 10,7 C 10,0 C 9,4 C 96 % 15 lf 1004,5 hPa 0,0 l/m 0 min 0 min 0 W/m 11,3 km/h (2 Bft) 97,87 %
11.04.2018 03:16 10,7 C 10,0 C 9,4 C 96 % 15 lf 1004,6 hPa 0,0 l/m 0 min 0 min 0 W/m 11,3 km/h (2 Bft) 95,65 %
11.04.2018 03:18 10,7 C 10,0 C 9,4 C 96 % 15 lf 1004,6 hPa 0,0 l/m 0 min 0 min 0 W/m 13,5 km/h (3 Bft) 95,74 %
11.04.2018 03:20 10,7 C 10,0 C 9,4 C 96 % 15 lf 1004,7 hPa 0,0 l/m 0 min 0 min 0 W/m 11,3 km/h (2 Bft) 97,87 %
11.04.2018 03:22 10,7 C 10,0 C 9,4 C 96 % 15 lf 1004,7 hPa 0,0 l/m 0 min 0 min 0 W/m 13,5 km/h (3 Bft) 100,00 %
11.04.2018 03:24 10,7 C 10,0 C 9,4 C 96 % 15 lf 1004,8 hPa 0,0 l/m 0 min 0 min 0 W/m 15,8 km/h (3 Bft) 97,87 %
11.04.2018 03:26 10,7 C 10,0 C 9,4 C 96 % 15 lf 1004,8 hPa 0,0 l/m 0 min 0 min 0 W/m 13,5 km/h (3 Bft) 91,30 %
11.04.2018 03:28 10,7 C 10,0 C 9,4 C 96 % 15 lf 1004,7 hPa 0,0 l/m 0 min 0 min 0 W/m 13,5 km/h (3 Bft) 95,74 %
11.04.2018 03:30 10,7 C 10,0 C 9,4 C 96 % 15 lf 1004,7 hPa 0,0 l/m 0 min 0 min 0 W/m 11,3 km/h (2 Bft) 91,49 %
11.04.2018 03:32 10,7 C 10,0 C 9,4 C 96 % 15 lf 1004,7 hPa 0,0 l/m 0 min 0 min 0 W/m 11,3 km/h (2 Bft) 95,74 %
11.04.2018 03:34 10,7 C 10,0 C 9,4 C 96 % 15 lf 1004,7 hPa 0,0 l/m 0 min 2 min 0 W/m 6,8 km/h (2 Bft) 93,62 %
11.04.2018 03:38 10,7 C 10,0 C 9,4 C 96 % 15 lf 1004,7 hPa 0,0 l/m 0 min 4 min 0 W/m 13,5 km/h (3 Bft) 93,55 %
11.04.2018 03:40 10,7 C 10,0 C 9,4 C 96 % 15 lf 1004,7 hPa 0,0 l/m 0 min 0 min 0 W/m 9,0 km/h (2 Bft) 95,74 %
11.04.2018 03:42 10,7 C 10,0 C 9,4 C 96 % 15 lf 1004,8 hPa 0,0 l/m 0 min 0 min 0 W/m 6,8 km/h (2 Bft) 93,62 %
11.04.2018 03:44 10,7 C 10,0 C 9,4 C 96 % 15 lf 1004,8 hPa 0,0 l/m 0 min 0 min 0 W/m 4,5 km/h (1 Bft) 91,49 %
11.04.2018 03:46 10,7 C 10,0 C 9,4 C 96 % 15 lf 1004,9 hPa 0,0 l/m 0 min 2 min 0 W/m 2,3 km/h (1 Bft) 93,62 %
11.04.2018 03:48 10,7 C 10,0 C 9,4 C 96 % 15 lf 1004,8 hPa 0,0 l/m 0 min 2 min 0 W/m 4,5 km/h (1 Bft) 93,62 %
11.04.2018 03:50 10,7 C 10,0 C 9,4 C 96 % 15 lf 1004,9 hPa 0,0 l/m 0 min 0 min 0 W/m 6,8 km/h (2 Bft) 95,65 %
11.04.2018 03:52 10,7 C 10,0 C 9,4 C 96 % 15 lf 1004,8 hPa 0,0 l/m 0 min 0 min 0 W/m 6,8 km/h (2 Bft) 93,62 %
11.04.2018 03:54 10,7 C 10,0 C 9,4 C 96 % 15 lf 1004,8 hPa 0,0 l/m 0 min 0 min 0 W/m 9,0 km/h (2 Bft) 93,62 %
11.04.2018 03:56 10,7 C 10,0 C 9,4 C 96 % 15 lf 1004,7 hPa 0,0 l/m 0 min 0 min 0 W/m 6,8 km/h (2 Bft) 93,62 %
11.04.2018 03:58 10,7 C 10,0 C 9,4 C 96 % 15 lf 1004,7 hPa 0,0 l/m 0 min 0 min 0 W/m 11,3 km/h (2 Bft) 97,87 %
11.04.2018 04:00 10,7 C 10,0 C 9,4 C 96 % 15 lf 1004,7 hPa 0,0 l/m 0 min 0 min 0 W/m 9,0 km/h (2 Bft) 95,65 %
11.04.2018 04:02 10,7 C 10,0 C 9,4 C 96 % 15 lf 1004,8 hPa 0,0 l/m 0 min 0 min 0 W/m 6,8 km/h (2 Bft) 100,00 %
11.04.2018 04:04 10,7 C 10,0 C 9,4 C 96 % 15 lf 1004,7 hPa 0,0 l/m 0 min 0 min 0 W/m 6,8 km/h (2 Bft) 93,62 %
11.04.2018 04:08 10,7 C 10,0 C 9,4 C 96 % 15 lf 1004,8 hPa 0,0 l/m 0 min 0 min 0 W/m 4,5 km/h (1 Bft) 95,74 %
11.04.2018 04:10 10,7 C 10,0 C 9,4 C 96 % 15 lf 1004,9 hPa 0,0 l/m 0 min 0 min 0 W/m 0,0 km/h (0 Bft) 97,87 %
11.04.2018 04:12 10,7 C 10,0 C 9,4 C 96 % 15 lf 1004,8 hPa 0,0 l/m 0 min 0 min 0 W/m 0,0 km/h (0 Bft) 95,65 %
11.04.2018 04:14 10,7 C 10,0 C 9,4 C 96 % 15 lf 1004,8 hPa 0,0 l/m 0 min 0 min 0 W/m 4,5 km/h (1 Bft) 97,87 %
11.04.2018 04:16 10,7 C 10,0 C 9,4 C 96 % 15 lf 1004,7 hPa 0,0 l/m 0 min 0 min 0 W/m 4,5 km/h (1 Bft) 97,87 %
11.04.2018 04:18 10,7 C 10,0 C 9,4 C 96 % 15 lf 1004,8 hPa 0,0 l/m 0 min 0 min 0 W/m 4,5 km/h (1 Bft) 100,00 %
11.04.2018 04:20 10,6 C 10,0 C 9,4 C 96 % 15 lf 1004,8 hPa 0,0 l/m 0 min 0 min 0 W/m 4,5 km/h (1 Bft) 97,87 %
11.04.2018 04:22 10,6 C 10,0 C 9,4 C 96 % 15 lf 1004,7 hPa 0,0 l/m 0 min 0 min 0 W/m 6,8 km/h (2 Bft) 100,00 %
11.04.2018 04:24 10,6 C 10,0 C 9,4 C 96 % 15 lf 1004,6 hPa 0,0 l/m 0 min 0 min 0 W/m 9,0 km/h (2 Bft) 100,00 %
11.04.2018 04:26 10,6 C 10,0 C 9,4 C 96 % 15 lf 1004,5 hPa 0,0 l/m 0 min 0 min 0 W/m 9,0 km/h (2 Bft) 97,87 %
11.04.2018 04:28 10,6 C 10,0 C 8,9 C 96 % 15 lf 1004,5 hPa 0,0 l/m 0 min 0 min 0 W/m 9,0 km/h (2 Bft) 100,00 %
11.04.2018 04:30 10,6 C 10,0 C 8,9 C 96 % 15 lf 1004,7 hPa 0,0 l/m 0 min 0 min 0 W/m 6,8 km/h (2 Bft) 100,00 %
11.04.2018 04:32 10,6 C 10,0 C 8,9 C 96 % 15 lf 1004,7 hPa 0,0 l/m 0 min 0 min 0 W/m 9,0 km/h (2 Bft) 100,00 %
11.04.2018 04:34 10,6 C 10,0 C 9,4 C 96 % 15 lf 1004,8 hPa 0,0 l/m 0 min 2 min 0 W/m 6,8 km/h (2 Bft) 100,00 %
11.04.2018 04:38 10,6 C 10,0 C 9,4 C 96 % 15 lf 1004,8 hPa 0,0 l/m 0 min 0 min 0 W/m 9,0 km/h (2 Bft) 100,00 %
11.04.2018 04:40 10,6 C 10,0 C 8,9 C 96 % 15 lf 1004,8 hPa 0,0 l/m 0 min 0 min 0 W/m 9,0 km/h (2 Bft) 100,00 %
11.04.2018 04:42 10,6 C 10,0 C 9,4 C 96 % 15 lf 1004,8 hPa 0,0 l/m 0 min 0 min 0 W/m 11,3 km/h (2 Bft) 100,00 %
11.04.2018 04:44 10,6 C 10,0 C 9,4 C 96 % 15 lf 1004,9 hPa 0,0 l/m 0 min 0 min 0 W/m 9,0 km/h (2 Bft) 97,87 %
11.04.2018 04:46 10,6 C 10,0 C 9,4 C 96 % 15 lf 1004,9 hPa 0,0 l/m 0 min 0 min 0 W/m 9,0 km/h (2 Bft) 97,87 %
11.04.2018 04:48 10,6 C 10,0 C 9,4 C 96 % 15 lf 1005,0 hPa 0,0 l/m 0 min 0 min 0 W/m 13,5 km/h (3 Bft) 97,83 %
11.04.2018 04:50 10,6 C 10,0 C 9,4 C 96 % 15 lf 1005,0 hPa 0,0 l/m 0 min 0 min 0 W/m 11,3 km/h (2 Bft) 97,87 %
11.04.2018 04:52 10,6 C 10,0 C 9,4 C 96 % 15 lf 1005,0 hPa 0,0 l/m 0 min 0 min 0 W/m 6,8 km/h (2 Bft) 100,00 %
11.04.2018 04:54 10,5 C 10,0 C 9,4 C 96 % 15 lf 1005,0 hPa 0,0 l/m 0 min 0 min 0 W/m 11,3 km/h (2 Bft) 100,00 %
11.04.2018 04:56 10,5 C 10,0 C 9,4 C 96 % 15 lf 1005,0 hPa 0,0 l/m 0 min 0 min 0 W/m 9,0 km/h (2 Bft) 100,00 %
11.04.2018 04:58 10,5 C 10,0 C 9,4 C 96 % 15 lf 1005,0 hPa 0,0 l/m 0 min 0 min 0 W/m 9,0 km/h (2 Bft) 100,00 %
11.04.2018 05:00 10,5 C 10,0 C 9,4 C 96 % 15 lf 1005,0 hPa 0,0 l/m 0 min 0 min 0 W/m 9,0 km/h (2 Bft) 95,65 %
11.04.2018 05:02 10,5 C 10,0 C 9,4 C 96 % 15 lf 1005,0 hPa 0,0 l/m 0 min 0 min 0 W/m 9,0 km/h (2 Bft) 100,00 %
11.04.2018 05:04 10,5 C 10,0 C 9,4 C 96 % 15 lf 1004,9 hPa 0,0 l/m 0 min 0 min 0 W/m 6,8 km/h (2 Bft) 100,00 %
11.04.2018 05:08 10,5 C 10,0 C 9,4 C 96 % 15 lf 1004,9 hPa 0,0 l/m 0 min 0 min 0 W/m 9,0 km/h (2 Bft) 97,87 %
11.04.2018 05:10 10,5 C 10,0 C 9,4 C 96 % 15 lf 1004,9 hPa 0,0 l/m 0 min 2 min 0 W/m 11,3 km/h (2 Bft) 97,87 %
11.04.2018 05:12 10,5 C 10,0 C 9,4 C 96 % 15 lf 1004,9 hPa 0,0 l/m 0 min 0 min 0 W/m 9,0 km/h (2 Bft) 95,74 %
11.04.2018 05:14 10,5 C 10,0 C 9,4 C 96 % 15 lf 1004,9 hPa 0,0 l/m 0 min 0 min 0 W/m 6,8 km/h (2 Bft) 97,87 %
11.04.2018 05:16 10,5 C 10,0 C 9,4 C 96 % 15 lf 1004,9 hPa 0,0 l/m 0 min 0 min 0 W/m 4,5 km/h (1 Bft) 97,87 %
11.04.2018 05:18 10,5 C 10,0 C 9,4 C 96 % 15 lf 1004,9 hPa 0,0 l/m 0 min 0 min 0 W/m 6,8 km/h (2 Bft) 93,62 %
11.04.2018 05:20 10,5 C 10,0 C 9,4 C 96 % 15 lf 1004,9 hPa 0,0 l/m 0 min 0 min 0 W/m 9,0 km/h (2 Bft) 97,87 %
11.04.2018 05:22 10,5 C 10,0 C 9,4 C 96 % 15 lf 1004,9 hPa 0,0 l/m 0 min 0 min 0 W/m 9,0 km/h (2 Bft) 95,74 %
11.04.2018 05:24 10,5 C 10,0 C 8,9 C 96 % 15 lf 1004,8 hPa 0,0 l/m 0 min 0 min 0 W/m 6,8 km/h (2 Bft) 95,65 %
11.04.2018 05:26 10,5 C 10,0 C 8,9 C 96 % 15 lf 1004,9 hPa 0,0 l/m 0 min 0 min 0 W/m 9,0 km/h (2 Bft) 95,74 %
11.04.2018 05:28 10,5 C 10,0 C 8,9 C 96 % 15 lf 1004,8 hPa 0,0 l/m 0 min 0 min 0 W/m 6,8 km/h (2 Bft) 95,74 %
11.04.2018 05:30 10,5 C 10,0 C 8,9 C 96 % 15 lf 1004,8 hPa 0,0 l/m 0 min 0 min 0 W/m 6,8 km/h (2 Bft) 93,62 %
11.04.2018 05:32 10,4 C 10,0 C 8,9 C 96 % 15 lf 1004,7 hPa 0,0 l/m 0 min 2 min 0 W/m 4,5 km/h (1 Bft) 91,49 %
11.04.2018 05:34 10,5 C 10,0 C 8,9 C 96 % 15 lf 1004,7 hPa 0,0 l/m 0 min 0 min 0 W/m 6,8 km/h (2 Bft) 91,30 %
11.04.2018 05:35 10,4 C 10,0 C 8,9 C 96 % 15 lf 1004,7 hPa 0,0 l/m 0 min 0 min 0 W/m 6,8 km/h (2 Bft) 94,74 %
11.04.2018 05:40 10,4 C 10,0 C 8,9 C 96 % 15 lf 1004,6 hPa 0,0 l/m 0 min 0 min 0 W/m 6,8 km/h (2 Bft) 100,00 %
11.04.2018 05:46 10,4 C 9,4 C 8,9 C 96 % 15 lf 1004,7 hPa 0,0 l/m 0 min 0 min 0 W/m 6,8 km/h (2 Bft) 90,32 %
11.04.2018 05:48 10,4 C 9,4 C 8,9 C 96 % 15 lf 1004,7 hPa 0,0 l/m 0 min 0 min 0 W/m 6,8 km/h (2 Bft) 93,62 %
11.04.2018 05:50 10,4 C 9,4 C 8,9 C 96 % 15 lf 1004,7 hPa 0,0 l/m 0 min 0 min 0 W/m 9,0 km/h (2 Bft) 93,62 %
11.04.2018 05:52 10,4 C 9,4 C 8,9 C 96 % 15 lf 1004,7 hPa 0,0 l/m 0 min 0 min 0 W/m 13,5 km/h (3 Bft) 93,48 %
11.04.2018 05:54 10,4 C 9,4 C 8,9 C 96 % 15 lf 1004,6 hPa 0,0 l/m 0 min 0 min 0 W/m 13,5 km/h (3 Bft) 93,62 %
11.04.2018 05:56 10,4 C 9,4 C 8,9 C 96 % 15 lf 1004,5 hPa 0,0 l/m 0 min 0 min 0 W/m 9,0 km/h (2 Bft) 93,62 %
11.04.2018 05:58 10,4 C 9,4 C 8,3 C 96 % 14 lf 1004,3 hPa 0,0 l/m 0 min 0 min 0 W/m 13,5 km/h (3 Bft) 95,74 %
11.04.2018 06:00 10,3 C 9,4 C 8,3 C 96 % 14 lf 1004,3 hPa 0,0 l/m 0 min 0 min 0 W/m 13,5 km/h (3 Bft) 95,74 %
11.04.2018 06:02 10,3 C 9,4 C 8,3 C 96 % 15 lf 1004,3 hPa 0,0 l/m 0 min 0 min 0 W/m 9,0 km/h (2 Bft) 95,12 %
11.04.2018 06:04 10,3 C 9,4 C 8,3 C 96 % 14 lf 1004,2 hPa 0,0 l/m 0 min 0 min 0 W/m 11,3 km/h (2 Bft) 96,15 %
11.04.2018 06:08 10,3 C 9,4 C 8,3 C 96 % 14 lf 1004,3 hPa 0,0 l/m 0 min 0 min 0 W/m 11,3 km/h (2 Bft) 95,74 %
11.04.2018 06:10 10,3 C 9,4 C 8,3 C 96 % 13 lf 1004,3 hPa 0,0 l/m 0 min 0 min 0 W/m 11,3 km/h (2 Bft) 97,87 %
11.04.2018 06:12 10,2 C 9,4 C 8,3 C 96 % 14 lf 1004,4 hPa 0,0 l/m 0 min 0 min 0 W/m 11,3 km/h (2 Bft) 93,62 %
11.04.2018 06:14 10,2 C 9,4 C 8,3 C 96 % 13 lf 1004,5 hPa 0,0 l/m 0 min 0 min 0 W/m 13,5 km/h (3 Bft) 95,65 %
11.04.2018 06:16 10,2 C 9,4 C 8,3 C 96 % 13 lf 1004,7 hPa 0,0 l/m 0 min 0 min 0 W/m 11,3 km/h (2 Bft) 95,12 %
11.04.2018 06:18 10,2 C 9,4 C 8,3 C 96 % 14 lf 1004,6 hPa 0,0 l/m 0 min 0 min 0 W/m 6,8 km/h (2 Bft) 96,23 %
11.04.2018 06:20 10,2 C 9,4 C 8,3 C 96 % 13 lf 1004,6 hPa 0,0 l/m 0 min 0 min 0 W/m 9,0 km/h (2 Bft) 91,49 %
11.04.2018 06:22 10,2 C 9,4 C 8,3 C 96 % 13 lf 1004,7 hPa 0,0 l/m 0 min 0 min 0 W/m 6,8 km/h (2 Bft) 95,74 %
11.04.2018 06:24 10,2 C 9,4 C 8,3 C 96 % 12 lf 1004,8 hPa 0,0 l/m 0 min 0 min 0 W/m 6,8 km/h (2 Bft) 95,74 %
11.04.2018 06:26 10,1 C 9,4 C 8,3 C 96 % 12 lf 1004,8 hPa 0,0 l/m 0 min 0 min 0 W/m 11,3 km/h (2 Bft) 93,48 %
11.04.2018 06:28 10,1 C 9,4 C 8,3 C 95 % 12 lf 1004,8 hPa 0,0 l/m 0 min 0 min 0 W/m 9,0 km/h (2 Bft) 95,74 %
11.04.2018 06:30 10,1 C 9,4 C 8,3 C 95 % 10 lf 1004,8 hPa 0,0 l/m 0 min 0 min 0 W/m 4,5 km/h (1 Bft) 93,62 %
11.04.2018 06:32 10,1 C 9,4 C 8,3 C 96 % 10 lf 1004,8 hPa 0,0 l/m 0 min 0 min 0 W/m 6,8 km/h (2 Bft) 93,62 %
11.04.2018 06:34 10,1 C 9,4 C 8,3 C 96 % 11 lf 1004,9 hPa 0,0 l/m 0 min 0 min 0 W/m 6,8 km/h (2 Bft) 97,87 %
11.04.2018 06:36 10,1 C 9,4 C 8,3 C 96 % 10 lf 1004,8 hPa 0,0 l/m 0 min 0 min 0 W/m 6,8 km/h (2 Bft) 97,87 %
11.04.2018 06:38 10,1 C 9,4 C 8,3 C 96 % 9 lf 1004,8 hPa 0,0 l/m 0 min 0 min 0 W/m 6,8 km/h (2 Bft) 97,83 %
11.04.2018 06:40 10,1 C 9,4 C 8,3 C 95 % 9 lf 1004,9 hPa 0,0 l/m 0 min 0 min 0 W/m 4,5 km/h (1 Bft) 95,74 %
11.04.2018 06:42 10,1 C 9,4 C 8,3 C 95 % 8 lf 1004,9 hPa 0,0 l/m 0 min 0 min 0 W/m 6,8 km/h (2 Bft) 95,74 %
11.04.2018 06:44 10,1 C 9,4 C 8,3 C 95 % 8 lf 1004,7 hPa 0,0 l/m 0 min 0 min 0 W/m 6,8 km/h (2 Bft) 95,74 %
11.04.2018 06:46 10,1 C 9,4 C 8,3 C 95 % 6 lf 1004,7 hPa 0,0 l/m 0 min 0 min 0 W/m 6,8 km/h (2 Bft) 100,00 %
11.04.2018 06:48 10,1 C 9,4 C 8,3 C 95 % 5 lf 1004,6 hPa 0,0 l/m 0 min 0 min 0 W/m 9,0 km/h (2 Bft) 97,87 %
11.04.2018 06:50 10,1 C 9,4 C 8,3 C 95 % 5 lf 1004,8 hPa 0,0 l/m 0 min 0 min 0 W/m 6,8 km/h (2 Bft) 96,15 %
11.04.2018 06:52 10,0 C 9,4 C 8,3 C 95 % 4 lf 1004,8 hPa 0,0 l/m 0 min 0 min 0 W/m 4,5 km/h (1 Bft) 100,00 %
11.04.2018 06:54 10,0 C 9,4 C 8,3 C 95 % 3 lf 1004,7 hPa 0,0 l/m 0 min 0 min 0 W/m 6,8 km/h (2 Bft) 95,74 %
11.04.2018 06:56 10,0 C 9,4 C 8,3 C 95 % 3 lf 1004,6 hPa 0,0 l/m 0 min 0 min 0 W/m 9,0 km/h (2 Bft) 97,87 %
11.04.2018 06:58 10,0 C 9,4 C 8,3 C 95 % 2 lf 1004,5 hPa 0,0 l/m 0 min 0 min 0 W/m 11,3 km/h (2 Bft) 95,74 %
11.04.2018 07:00 10,0 C 9,4 C 8,3 C 95 % 2 lf 1004,5 hPa 0,0 l/m 0 min 0 min 0 W/m 9,0 km/h (2 Bft) 100,00 %
11.04.2018 07:02 10,0 C 9,4 C 8,3 C 95 % 1 lf 1004,5 hPa 0,0 l/m 0 min 0 min 5 W/m 9,0 km/h (2 Bft) 97,87 %
11.04.2018 07:04 10,0 C 9,4 C 8,3 C 95 % 1 lf 1004,5 hPa 0,0 l/m 0 min 0 min 5 W/m 9,0 km/h (2 Bft) 97,87 %
11.04.2018 07:06 10,0 C 9,4 C 8,3 C 95 % 3 lf 1004,6 hPa 0,0 l/m 0 min 0 min 5 W/m 9,0 km/h (2 Bft) 100,00 %
11.04.2018 07:08 10,0 C 9,4 C 8,3 C 95 % 3 lf 1004,6 hPa 0,0 l/m 0 min 2 min 5 W/m 9,0 km/h (2 Bft) 100,00 %
11.04.2018 07:10 10,0 C 9,4 C 8,3 C 95 % 3 lf 1004,6 hPa 0,0 l/m 0 min 2 min 5 W/m 9,0 km/h (2 Bft) 97,87 %
11.04.2018 07:12 10,0 C 9,4 C 8,3 C 95 % 7 lf 1004,6 hPa 0,0 l/m 0 min 2 min 7 W/m 9,0 km/h (2 Bft) 91,30 %
11.04.2018 07:14 10,0 C 9,4 C 8,3 C 95 % 6 lf 1004,6 hPa 0,0 l/m 0 min 0 min 7 W/m 9,0 km/h (2 Bft) 100,00 %
11.04.2018 07:16 10,0 C 9,4 C 8,3 C 95 % 6 lf 1004,7 hPa 0,0 l/m 0 min 0 min 5 W/m 4,5 km/h (1 Bft) 100,00 %
11.04.2018 07:18 10,0 C 9,4 C 8,3 C 95 % 5 lf 1004,8 hPa 0,0 l/m 0 min 2 min 5 W/m 2,3 km/h (1 Bft) 100,00 %
11.04.2018 07:20 10,0 C 9,4 C 8,3 C 95 % 4 lf 1004,8 hPa 0,0 l/m 0 min 0 min 5 W/m 4,5 km/h (1 Bft) 97,87 %
11.04.2018 07:22 10,0 C 9,4 C 8,9 C 95 % 4 lf 1004,8 hPa 0,0 l/m 0 min 0 min 5 W/m 4,5 km/h (1 Bft) 100,00 %
11.04.2018 07:24 10,0 C 9,4 C 8,9 C 95 % 4 lf 1004,7 hPa 0,0 l/m 0 min 0 min 5 W/m 4,5 km/h (1 Bft) 95,65 %
11.04.2018 07:26 10,0 C 9,4 C 8,9 C 95 % 4 lf 1004,8 hPa 0,0 l/m 0 min 0 min 5 W/m 0,0 km/h (0 Bft) 97,87 %
11.04.2018 07:28 10,0 C 9,4 C 8,9 C 95 % 4 lf 1004,8 hPa 0,0 l/m 0 min 2 min 5 W/m 4,5 km/h (1 Bft) 93,62 %
11.04.2018 07:30 10,0 C 9,4 C 8,3 C 95 % 7 lf 1004,8 hPa 0,0 l/m 0 min 2 min 7 W/m 6,8 km/h (2 Bft) 93,62 %
11.04.2018 07:32 10,0 C 9,4 C 8,9 C 95 % 15 lf 1004,9 hPa 0,0 l/m 0 min 2 min 10 W/m 4,5 km/h (1 Bft) 93,62 %
11.04.2018 07:34 10,0 C 9,4 C 8,9 C 95 % 15 lf 1004,9 hPa 0,2 l/m 0 min 2 min 13 W/m 2,3 km/h (1 Bft) 97,87 %
11.04.2018 07:36 10,0 C 9,4 C 8,9 C 95 % 15 lf 1004,9 hPa 0,0 l/m 0 min 2 min 17 W/m 0,0 km/h (0 Bft) 97,83 %
11.04.2018 07:38 10,0 C 9,4 C 8,9 C 95 % 15 lf 1005,0 hPa 0,2 l/m 0 min 2 min 19 W/m 4,5 km/h (1 Bft) 95,74 %
11.04.2018 07:40 10,0 C 9,4 C 8,9 C 95 % 15 lf 1005,1 hPa 0,0 l/m 0 min 2 min 18 W/m 4,5 km/h (1 Bft) 97,87 %
11.04.2018 07:42 10,0 C 9,4 C 8,9 C 95 % 15 lf 1005,1 hPa 0,0 l/m 0 min 2 min 17 W/m 2,3 km/h (1 Bft) 97,87 %
11.04.2018 07:44 10,1 C 9,4 C 8,9 C 95 % 15 lf 1005,1 hPa 0,0 l/m 0 min 2 min 15 W/m 4,5 km/h (1 Bft) 97,87 %
11.04.2018 07:46 10,1 C 9,4 C 8,9 C 95 % 15 lf 1005,1 hPa 0,0 l/m 0 min 2 min 14 W/m 4,5 km/h (1 Bft) 93,48 %
11.04.2018 07:48 10,1 C 9,4 C 8,9 C 95 % 15 lf 1005,2 hPa 0,0 l/m 0 min 2 min 13 W/m 4,5 km/h (1 Bft) 95,74 %
11.04.2018 07:50 10,1 C 9,4 C 8,9 C 95 % 15 lf 1005,2 hPa 0,0 l/m 0 min 0 min 12 W/m 4,5 km/h (1 Bft) 97,87 %
11.04.2018 07:52 10,1 C 9,4 C 8,9 C 95 % 15 lf 1005,2 hPa 0,0 l/m 0 min 0 min 12 W/m 6,8 km/h (2 Bft) 97,87 %
11.04.2018 07:54 10,1 C 9,4 C 8,9 C 95 % 15 lf 1005,2 hPa 0,0 l/m 0 min 0 min 14 W/m 9,0 km/h (2 Bft) 93,62 %
11.04.2018 07:56 10,1 C 9,4 C 8,9 C 95 % 15 lf 1005,2 hPa 0,0 l/m 0 min 0 min 16 W/m 6,8 km/h (2 Bft) 100,00 %
11.04.2018 07:58 10,1 C 9,4 C 8,9 C 96 % 15 lf 1005,2 hPa 0,0 l/m 0 min 0 min 17 W/m 6,8 km/h (2 Bft) 97,83 %
11.04.2018 08:00 10,1 C 9,4 C 8,9 C 96 % 15 lf 1005,2 hPa 0,0 l/m 0 min 0 min 18 W/m 4,5 km/h (1 Bft) 100,00 %
11.04.2018 08:02 10,2 C 9,4 C 8,9 C 96 % 15 lf 1005,3 hPa 0,0 l/m 0 min 0 min 14 W/m 4,5 km/h (1 Bft) 100,00 %
11.04.2018 08:04 10,2 C 9,4 C 8,9 C 96 % 15 lf 1005,4 hPa 0,0 l/m 0 min 0 min 12 W/m 4,5 km/h (1 Bft) 100,00 %
11.04.2018 08:06 10,2 C 9,4 C 8,9 C 96 % 15 lf 1005,3 hPa 0,0 l/m 0 min 0 min 13 W/m 0,0 km/h (0 Bft) 97,87 %
11.04.2018 08:08 10,2 C 9,4 C 8,9 C 96 % 15 lf 1005,3 hPa 0,0 l/m 0 min 0 min 16 W/m 0,0 km/h (0 Bft) 100,00 %
11.04.2018 08:10 10,2 C 9,4 C 8,9 C 96 % 15 lf 1005,3 hPa 0,0 l/m 0 min 0 min 18 W/m 2,3 km/h (1 Bft) 97,83 %
11.04.2018 08:12 10,2 C 10,0 C 8,9 C 96 % 15 lf 1005,3 hPa 0,0 l/m 0 min 0 min 18 W/m 2,3 km/h (1 Bft) 100,00 %
11.04.2018 08:14 10,2 C 10,0 C 8,9 C 96 % 15 lf 1005,4 hPa 0,0 l/m 0 min 0 min 17 W/m 2,3 km/h (1 Bft) 95,74 %
11.04.2018 08:16 10,2 C 10,0 C 8,9 C 96 % 15 lf 1005,4 hPa 0,0 l/m 0 min 0 min 15 W/m 0,0 km/h (0 Bft) 100,00 %
11.04.2018 08:18 10,2 C 10,0 C 8,9 C 96 % 15 lf 1005,4 hPa 0,0 l/m 0 min 0 min 11 W/m 0,0 km/h (0 Bft) 91,49 %
11.04.2018 08:20 10,2 C 10,0 C 8,9 C 96 % 15 lf 1005,4 hPa 0,0 l/m 0 min 0 min 10 W/m 0,0 km/h (0 Bft) 95,74 %
11.04.2018 08:22 10,2 C 10,0 C 8,9 C 96 % 15 lf 1005,4 hPa 0,0 l/m 0 min 0 min 10 W/m 2,3 km/h (1 Bft) 97,83 %
11.04.2018 08:24 10,2 C 9,4 C 8,9 C 96 % 15 lf 1005,4 hPa 0,0 l/m 0 min 0 min 11 W/m 0,0 km/h (0 Bft) 95,74 %
11.04.2018 08:26 10,2 C 9,4 C 8,9 C 96 % 15 lf 1005,4 hPa 0,0 l/m 0 min 0 min 13 W/m 2,3 km/h (1 Bft) 97,87 %
11.04.2018 08:28 10,2 C 9,4 C 8,9 C 96 % 15 lf 1005,4 hPa 0,0 l/m 0 min 0 min 17 W/m 4,5 km/h (1 Bft) 97,87 %
11.04.2018 08:30 10,2 C 10,0 C 8,9 C 96 % 15 lf 1005,5 hPa 0,0 l/m 0 min 0 min 22 W/m 6,8 km/h (2 Bft) 95,74 %
11.04.2018 08:32 10,2 C 10,0 C 8,9 C 96 % 15 lf 1005,4 hPa 0,0 l/m 0 min 0 min 22 W/m 4,5 km/h (1 Bft) 95,74 %
11.04.2018 08:34 10,2 C 10,0 C 9,4 C 96 % 15 lf 1005,5 hPa 0,0 l/m 0 min 0 min 19 W/m 2,3 km/h (1 Bft) 93,48 %
11.04.2018 08:36 10,2 C 10,0 C 9,4 C 96 % 15 lf 1005,5 hPa 0,0 l/m 0 min 0 min 17 W/m 0,0 km/h (0 Bft) 95,74 %
11.04.2018 08:38 10,2 C 10,0 C 9,4 C 96 % 15 lf 1005,5 hPa 0,0 l/m 0 min 0 min 16 W/m 0,0 km/h (0 Bft) 95,74 %
11.04.2018 08:40 10,2 C 10,0 C 9,4 C 96 % 15 lf 1005,6 hPa 0,0 l/m 0 min 0 min 16 W/m 2,3 km/h (1 Bft) 95,74 %
11.04.2018 08:42 10,2 C 10,0 C 9,4 C 96 % 15 lf 1005,6 hPa 0,0 l/m 0 min 0 min 16 W/m 2,3 km/h (1 Bft) 95,74 %
11.04.2018 08:44 10,3 C 10,0 C 9,4 C 96 % 15 lf 1005,5 hPa 0,0 l/m 0 min 0 min 15 W/m 4,5 km/h (1 Bft) 95,74 %
11.04.2018 08:46 10,3 C 10,0 C 9,4 C 96 % 15 lf 1005,6 hPa 0,0 l/m 0 min 0 min 14 W/m 2,3 km/h (1 Bft) 93,48 %
11.04.2018 08:48 10,3 C 10,0 C 9,4 C 96 % 15 lf 1005,6 hPa 0,0 l/m 0 min 0 min 14 W/m 0,0 km/h (0 Bft) 93,62 %
11.04.2018 08:50 10,3 C 10,0 C 9,4 C 96 % 15 lf 1005,6 hPa 0,0 l/m 0 min 0 min 15 W/m 0,0 km/h (0 Bft) 95,74 %
11.04.2018 08:52 10,3 C 10,0 C 9,4 C 96 % 15 lf 1005,5 hPa 0,0 l/m 0 min 0 min 20 W/m 0,0 km/h (0 Bft) 93,62 %
11.04.2018 08:54 10,3 C 10,0 C 9,4 C 96 % 15 lf 1005,5 hPa 0,0 l/m 0 min 0 min 25 W/m 0,0 km/h (0 Bft) 91,49 %
11.04.2018 08:56 10,3 C 10,0 C 9,4 C 96 % 15 lf 1005,5 hPa 0,0 l/m 0 min 0 min 24 W/m 2,3 km/h (1 Bft) 93,48 %
11.04.2018 08:58 10,3 C 10,0 C 9,4 C 96 % 15 lf 1005,6 hPa 0,0 l/m 0 min 0 min 20 W/m 0,0 km/h (0 Bft) 91,49 %
11.04.2018 09:00 10,3 C 10,0 C 9,4 C 96 % 15 lf 1005,5 hPa 0,0 l/m 0 min 0 min 23 W/m 2,3 km/h (1 Bft) 93,62 %
11.04.2018 09:02 10,3 C 10,0 C 9,4 C 96 % 15 lf 1005,4 hPa 0,0 l/m 0 min 0 min 28 W/m 0,0 km/h (0 Bft) 91,49 %
11.04.2018 09:04 10,3 C 10,0 C 9,4 C 96 % 15 lf 1005,5 hPa 0,0 l/m 0 min 0 min 28 W/m 4,5 km/h (1 Bft) 91,49 %
11.04.2018 09:06 10,3 C 10,0 C 9,4 C 96 % 15 lf 1005,5 hPa 0,0 l/m 0 min 0 min 25 W/m 4,5 km/h (1 Bft) 91,49 %
11.04.2018 09:08 10,4 C 10,0 C 9,4 C 96 % 15 lf 1005,5 hPa 0,0 l/m 0 min 0 min 25 W/m 4,5 km/h (1 Bft) 95,65 %
11.04.2018 09:10 10,4 C 10,0 C 9,4 C 96 % 15 lf 1005,6 hPa 0,0 l/m 0 min 0 min 27 W/m 2,3 km/h (1 Bft) 91,49 %
11.04.2018 09:12 10,4 C 10,0 C 9,4 C 96 % 15 lf 1005,5 hPa 0,0 l/m 0 min 0 min 24 W/m 4,5 km/h (1 Bft) 95,74 %
11.04.2018 09:14 10,4 C 10,0 C 9,4 C 96 % 15 lf 1005,6 hPa 0,0 l/m 0 min 0 min 22 W/m 0,0 km/h (0 Bft) 95,74 %
11.04.2018 09:16 10,4 C 10,0 C 9,4 C 96 % 15 lf 1005,7 hPa 0,0 l/m 0 min 0 min 20 W/m 0,0 km/h (0 Bft) 93,62 %
11.04.2018 09:18 10,4 C 10,0 C 9,4 C 96 % 15 lf 1005,6 hPa 0,0 l/m 0 min 0 min 18 W/m 0,0 km/h (0 Bft) 95,74 %
11.04.2018 09:20 10,4 C 10,0 C 9,4 C 96 % 15 lf 1005,7 hPa 0,0 l/m 0 min 0 min 22 W/m 0,0 km/h (0 Bft) 97,83 %
11.04.2018 09:22 10,4 C 10,0 C 9,4 C 96 % 14 lf 1005,7 hPa 0,0 l/m 0 min 0 min 26 W/m 0,0 km/h (0 Bft) 95,74 %
11.04.2018 09:24 10,4 C 10,0 C 9,4 C 96 % 14 lf 1005,7 hPa 0,0 l/m 0 min 0 min 26 W/m 0,0 km/h (0 Bft) 97,87 %
11.04.2018 09:26 10,4 C 10,0 C 9,4 C 96 % 15 lf 1005,7 hPa 0,0 l/m 0 min 0 min 26 W/m 0,0 km/h (0 Bft) 97,87 %
11.04.2018 09:28 10,4 C 10,0 C 9,4 C 96 % 14 lf 1005,7 hPa 0,0 l/m 0 min 0 min 26 W/m 4,5 km/h (1 Bft) 93,62 %
11.04.2018 09:30 10,4 C 10,0 C 9,4 C 96 % 13 lf 1005,7 hPa 0,0 l/m 0 min 0 min 28 W/m 4,5 km/h (1 Bft) 93,62 %
11.04.2018 09:32 10,4 C 10,0 C 9,4 C 96 % 13 lf 1005,8 hPa 0,0 l/m 0 min 0 min 32 W/m 4,5 km/h (1 Bft) 93,48 %
11.04.2018 09:34 10,4 C 10,0 C 9,4 C 96 % 13 lf 1005,8 hPa 0,0 l/m 0 min 0 min 34 W/m 2,3 km/h (1 Bft) 95,74 %
11.04.2018 09:36 10,4 C 10,0 C 9,4 C 96 % 13 lf 1005,8 hPa 0,0 l/m 0 min 0 min 29 W/m 4,5 km/h (1 Bft) 95,74 %
11.04.2018 09:38 10,4 C 10,0 C 9,4 C 96 % 13 lf 1005,8 hPa 0,0 l/m 0 min 0 min 25 W/m 2,3 km/h (1 Bft) 95,74 %
11.04.2018 09:40 10,4 C 10,0 C 9,4 C 96 % 12 lf 1005,8 hPa 0,0 l/m 0 min 0 min 27 W/m 2,3 km/h (1 Bft) 95,74 %
11.04.2018 09:42 10,4 C 10,0 C 9,4 C 96 % 12 lf 1005,7 hPa 0,0 l/m 0 min 0 min 33 W/m 2,3 km/h (1 Bft) 95,74 %
11.04.2018 09:44 10,4 C 10,6 C 10,0 C 96 % 10 lf 1005,7 hPa 0,0 l/m 0 min 0 min 39 W/m 2,3 km/h (1 Bft) 97,83 %
11.04.2018 09:46 10,5 C 10,6 C 10,0 C 96 % 10 lf 1005,7 hPa 0,0 l/m 0 min 0 min 47 W/m 6,8 km/h (2 Bft) 93,62 %
11.04.2018 09:48 10,5 C 10,6 C 10,0 C 96 % 8 lf 1005,7 hPa 0,0 l/m 0 min 0 min 55 W/m 6,8 km/h (2 Bft) 97,87 %
11.04.2018 09:50 10,5 C 10,6 C 10,0 C 96 % 6 lf 1005,7 hPa 0,0 l/m 0 min 0 min 63 W/m 6,8 km/h (2 Bft) 95,74 %
11.04.2018 09:52 10,6 C 10,6 C 10,0 C 96 % 4 lf 1005,6 hPa 0,0 l/m 0 min 0 min 63 W/m 6,8 km/h (2 Bft) 93,62 %
11.04.2018 09:54 10,6 C 10,6 C 10,6 C 96 % 4 lf 1005,7 hPa 0,0 l/m 0 min 0 min 61 W/m 4,5 km/h (1 Bft) 97,87 %
11.04.2018 09:56 10,6 C 10,6 C 10,6 C 96 % 3 lf 1005,7 hPa 0,0 l/m 0 min 0 min 46 W/m 9,0 km/h (2 Bft) 95,74 %
11.04.2018 09:58 10,6 C 10,6 C 10,0 C 96 % 2 lf 1005,7 hPa 0,0 l/m 0 min 0 min 34 W/m 9,0 km/h (2 Bft) 97,83 %
11.04.2018 10:00 10,7 C 10,6 C 10,0 C 96 % 2 lf 1005,8 hPa 0,0 l/m 0 min 0 min 27 W/m 6,8 km/h (2 Bft) 98,00 %
11.04.2018 10:02 10,7 C 10,6 C 10,0 C 96 % 1 lf 1005,8 hPa 0,0 l/m 0 min 0 min 28 W/m 4,5 km/h (1 Bft) 95,74 %
11.04.2018 10:04 10,7 C 10,6 C 10,0 C 96 % 1 lf 1005,8 hPa 0,0 l/m 0 min 0 min 34 W/m 4,5 km/h (1 Bft) 97,87 %
11.04.2018 10:06 10,7 C 10,6 C 10,0 C 96 % 1 lf 1005,7 hPa 0,0 l/m 0 min 0 min 40 W/m 9,0 km/h (2 Bft) 100,00 %
11.04.2018 10:08 10,7 C 10,6 C 10,0 C 96 % 0 lf 1005,8 hPa 0,0 l/m 0 min 0 min 42 W/m 9,0 km/h (2 Bft) 100,00 %
11.04.2018 10:10 10,7 C 10,6 C 10,0 C 96 % 0 lf 1005,8 hPa 0,0 l/m 0 min 0 min 44 W/m 4,5 km/h (1 Bft) 100,00 %
11.04.2018 10:12 10,7 C 10,6 C 10,0 C 96 % 0 lf 1005,8 hPa 0,0 l/m 0 min 0 min 52 W/m 6,8 km/h (2 Bft) 97,87 %
11.04.2018 10:14 10,7 C 11,1 C 10,0 C 96 % 0 lf 1005,7 hPa 0,0 l/m 0 min 0 min 72 W/m 6,8 km/h (2 Bft) 95,74 %
11.04.2018 10:16 10,7 C 11,1 C 10,6 C 96 % 0 lf 1005,8 hPa 0,0 l/m 0 min 0 min 86 W/m 4,5 km/h (1 Bft) 100,00 %
11.04.2018 10:18 10,8 C 11,7 C 10,6 C 96 % 0 lf 1005,7 hPa 0,0 l/m 0 min 0 min 94 W/m 4,5 km/h (1 Bft) 100,00 %
11.04.2018 10:20 10,8 C 11,1 C 11,1 C 96 % 0 lf 1005,7 hPa 0,0 l/m 0 min 0 min 91 W/m 9,0 km/h (2 Bft) 100,00 %
11.04.2018 10:22 10,8 C 11,1 C 10,6 C 96 % 0 lf 1005,7 hPa 0,0 l/m 0 min 0 min 81 W/m 9,0 km/h (2 Bft) 100,00 %
11.04.2018 10:24 10,9 C 11,1 C 10,6 C 96 % 0 lf 1005,7 hPa 0,0 l/m 0 min 0 min 68 W/m 6,8 km/h (2 Bft) 100,00 %
11.04.2018 10:26 10,9 C 11,1 C 10,6 C 96 % 0 lf 1005,8 hPa 0,0 l/m 0 min 0 min 59 W/m 9,0 km/h (2 Bft) 100,00 %
11.04.2018 10:28 10,9 C 11,1 C 10,6 C 96 % 0 lf 1005,8 hPa 0,0 l/m 0 min 0 min 51 W/m 6,8 km/h (2 Bft) 97,87 %
11.04.2018 10:30 10,9 C 11,1 C 10,6 C 96 % 0 lf 1005,8 hPa 0,0 l/m 0 min 0 min 45 W/m 6,8 km/h (2 Bft) 100,00 %
11.04.2018 10:32 10,9 C 11,1 C 10,6 C 96 % 0 lf 1005,8 hPa 0,0 l/m 0 min 0 min 40 W/m 9,0 km/h (2 Bft) 100,00 %
11.04.2018 10:34 10,9 C 11,1 C 10,0 C 96 % 0 lf 1005,8 hPa 0,0 l/m 0 min 0 min 33 W/m 6,8 km/h (2 Bft) 97,87 %
11.04.2018 10:36 10,9 C 10,6 C 10,0 C 96 % 0 lf 1005,8 hPa 0,0 l/m 0 min 0 min 28 W/m 6,8 km/h (2 Bft) 97,87 %
11.04.2018 10:38 10,9 C 10,6 C 10,0 C 96 % 0 lf 1005,8 hPa 0,0 l/m 0 min 0 min 24 W/m 6,8 km/h (2 Bft) 100,00 %
11.04.2018 10:40 10,9 C 10,6 C 10,0 C 96 % 0 lf 1005,8 hPa 0,0 l/m 0 min 0 min 25 W/m 6,8 km/h (2 Bft) 100,00 %
11.04.2018 10:42 10,9 C 10,6 C 10,0 C 96 % 0 lf 1005,9 hPa 0,0 l/m 0 min 0 min 29 W/m 4,5 km/h (1 Bft) 100,00 %
11.04.2018 10:44 11,0 C 10,6 C 10,0 C 96 % 0 lf 1005,9 hPa 0,0 l/m 0 min 0 min 32 W/m 4,5 km/h (1 Bft) 100,00 %
11.04.2018 10:46 10,9 C 10,6 C 10,0 C 96 % 0 lf 1005,9 hPa 0,0 l/m 0 min 0 min 40 W/m 4,5 km/h (1 Bft) 100,00 %
11.04.2018 10:48 11,0 C 11,1 C 10,6 C 96 % 0 lf 1005,9 hPa 0,0 l/m 0 min 0 min 49 W/m 4,5 km/h (1 Bft) 100,00 %
11.04.2018 10:50 11,0 C 11,1 C 10,6 C 96 % 0 lf 1005,9 hPa 0,0 l/m 0 min 0 min 53 W/m 4,5 km/h (1 Bft) 100,00 %
11.04.2018 10:52 11,0 C 11,1 C 10,6 C 96 % 0 lf 1005,8 hPa 0,0 l/m 0 min 0 min 49 W/m 4,5 km/h (1 Bft) 97,83 %
11.04.2018 10:54 11,0 C 11,1 C 10,6 C 96 % 0 lf 1005,9 hPa 0,0 l/m 0 min 0 min 49 W/m 2,3 km/h (1 Bft) 93,62 %
11.04.2018 10:56 11,1 C 11,1 C 10,6 C 96 % 0 lf 1005,9 hPa 0,0 l/m 0 min 0 min 43 W/m 4,5 km/h (1 Bft) 100,00 %
11.04.2018 10:58 11,1 C 10,6 C 10,6 C 96 % 0 lf 1005,9 hPa 0,0 l/m 0 min 0 min 35 W/m 2,3 km/h (1 Bft) 100,00 %
11.04.2018 11:00 11,1 C 10,6 C 10,0 C 96 % 0 lf 1005,9 hPa 0,0 l/m 0 min 0 min 30 W/m 4,5 km/h (1 Bft) 100,00 %
11.04.2018 11:02 11,1 C 10,6 C 10,0 C 96 % 0 lf 1005,9 hPa 0,0 l/m 0 min 0 min 33 W/m 6,8 km/h (2 Bft) 95,74 %
11.04.2018 11:04 11,1 C 10,6 C 10,0 C 96 % 0 lf 1005,9 hPa 0,0 l/m 0 min 0 min 35 W/m 4,5 km/h (1 Bft) 95,65 %
11.04.2018 11:06 11,1 C 11,1 C 10,0 C 96 % 0 lf 1005,9 hPa 0,0 l/m 0 min 0 min 37 W/m 2,3 km/h (1 Bft) 95,74 %
11.04.2018 11:08 11,1 C 11,1 C 10,0 C 96 % 0 lf 1005,9 hPa 0,0 l/m 0 min 0 min 39 W/m 0,0 km/h (0 Bft) 97,87 %
11.04.2018 11:10 11,1 C 11,1 C 10,0 C 96 % 0 lf 1005,9 hPa 0,0 l/m 0 min 0 min 47 W/m 0,0 km/h (0 Bft) 97,87 %
11.04.2018 11:12 11,1 C 11,1 C 10,0 C 96 % 0 lf 1005,9 hPa 0,0 l/m 0 min 0 min 55 W/m 2,3 km/h (1 Bft) 97,87 %
11.04.2018 11:14 11,1 C 11,7 C 10,6 C 96 % 0 lf 1005,8 hPa 0,0 l/m 0 min 0 min 76 W/m 2,3 km/h (1 Bft) 97,87 %
11.04.2018 11:16 11,1 C 11,7 C 10,6 C 96 % 0 lf 1005,8 hPa 0,0 l/m 0 min 0 min 103 W/m 4,5 km/h (1 Bft) 91,30 %
11.04.2018 11:18 11,1 C 11,7 C 11,1 C 96 % 0 lf 1005,8 hPa 0,0 l/m 0 min 0 min 98 W/m 6,8 km/h (2 Bft) 97,87 %
11.04.2018 11:20 11,2 C 11,7 C 11,1 C 96 % 0 lf 1005,9 hPa 0,0 l/m 0 min 0 min 70 W/m 6,8 km/h (2 Bft) 97,87 %
11.04.2018 11:22 11,2 C 11,7 C 11,1 C 96 % 0 lf 1005,9 hPa 0,0 l/m 0 min 0 min 58 W/m 6,8 km/h (2 Bft) 95,74 %
11.04.2018 11:24 11,2 C 11,1 C 10,6 C 96 % 0 lf 1005,9 hPa 0,0 l/m 0 min 0 min 52 W/m 6,8 km/h (2 Bft) 95,74 %
11.04.2018 11:26 11,2 C 11,1 C 10,6 C 96 % 0 lf 1005,9 hPa 0,0 l/m 0 min 0 min 44 W/m 6,8 km/h (2 Bft) 93,62 %
11.04.2018 11:28 11,2 C 11,1 C 10,6 C 96 % 0 lf 1005,9 hPa 0,0 l/m 0 min 0 min 40 W/m 6,8 km/h (2 Bft) 97,83 %
11.04.2018 11:30 11,3 C 11,1 C 10,6 C 96 % 0 lf 1005,9 hPa 0,0 l/m 0 min 0 min 35 W/m 6,8 km/h (2 Bft) 97,87 %
11.04.2018 11:32 11,3 C 11,1 C 10,6 C 96 % 0 lf 1005,9 hPa 0,0 l/m 0 min 0 min 31 W/m 4,5 km/h (1 Bft) 91,49 %
11.04.2018 11:34 11,3 C 11,1 C 10,6 C 96 % 0 lf 1005,8 hPa 0,0 l/m 0 min 0 min 30 W/m 0,0 km/h (0 Bft) 91,49 %
11.04.2018 11:36 11,3 C 11,1 C 10,6 C 96 % 0 lf 1005,8 hPa 0,0 l/m 0 min 0 min 30 W/m 0,0 km/h (0 Bft) 93,62 %
11.04.2018 11:38 11,3 C 11,1 C 10,6 C 96 % 0 lf 1005,8 hPa 0,0 l/m 0 min 0 min 26 W/m 0,0 km/h (0 Bft) 93,62 %
11.04.2018 11:40 11,3 C 11,1 C 10,6 C 96 % 0 lf 1005,9 hPa 0,0 l/m 0 min 0 min 26 W/m 6,8 km/h (2 Bft) 93,48 %
11.04.2018 11:42 11,3 C 11,1 C 10,6 C 96 % 0 lf 1005,8 hPa 0,0 l/m 0 min 0 min 32 W/m 4,5 km/h (1 Bft) 95,74 %
11.04.2018 11:44 11,3 C 11,1 C 10,6 C 95 % 0 lf 1005,8 hPa 0,0 l/m 0 min 0 min 39 W/m 6,8 km/h (2 Bft) 87,23 %
11.04.2018 11:46 11,3 C 10,6 C 10,6 C 95 % 0 lf 1005,9 hPa 0,0 l/m 0 min 0 min 38 W/m 6,8 km/h (2 Bft) 95,74 %
11.04.2018 11:48 11,3 C 11,1 C 10,6 C 95 % 0 lf 1005,8 hPa 0,0 l/m 0 min 0 min 32 W/m 6,8 km/h (2 Bft) 93,62 %
11.04.2018 11:50 11,3 C 11,1 C 10,6 C 95 % 0 lf 1005,9 hPa 0,0 l/m 0 min 0 min 29 W/m 4,5 km/h (1 Bft) 95,74 %
11.04.2018 11:52 11,3 C 11,1 C 10,6 C 95 % 0 lf 1005,9 hPa 0,0 l/m 0 min 0 min 31 W/m 9,0 km/h (2 Bft) 95,65 %
11.04.2018 11:54 11,3 C 10,6 C 10,6 C 95 % 0 lf 1005,9 hPa 0,0 l/m 0 min 0 min 34 W/m 9,0 km/h (2 Bft) 95,74 %
11.04.2018 11:56 11,3 C 10,6 C 10,0 C 95 % 0 lf 1005,9 hPa 0,0 l/m 0 min 0 min 36 W/m 9,0 km/h (2 Bft) 95,74 %
11.04.2018 11:58 11,3 C 10,6 C 10,0 C 95 % 0 lf 1005,9 hPa 0,0 l/m 0 min 0 min 33 W/m 6,8 km/h (2 Bft) 93,62 %
11.04.2018 12:00 11,3 C 11,1 C 10,0 C 95 % 0 lf 1005,9 hPa 0,0 l/m 0 min 0 min 36 W/m 4,5 km/h (1 Bft) 93,62 %
11.04.2018 12:02 11,3 C 10,6 C 10,0 C 95 % 0 lf 1005,9 hPa 0,0 l/m 0 min 0 min 36 W/m 11,3 km/h (2 Bft) 93,62 %
11.04.2018 12:04 11,3 C 10,6 C 10,0 C 95 % 0 lf 1006,0 hPa 0,0 l/m 0 min 0 min 35 W/m 11,3 km/h (2 Bft) 87,23 %
11.04.2018 12:06 11,3 C 10,6 C 10,0 C 95 % 0 lf 1006,0 hPa 0,0 l/m 0 min 0 min 35 W/m 11,3 km/h (2 Bft) 93,62 %
11.04.2018 12:08 11,3 C 10,6 C 10,0 C 95 % 0 lf 1006,0 hPa 0,0 l/m 0 min 0 min 37 W/m 9,0 km/h (2 Bft) 95,74 %
11.04.2018 12:10 11,3 C 10,6 C 10,0 C 95 % 0 lf 1006,0 hPa 0,0 l/m 0 min 0 min 35 W/m 6,8 km/h (2 Bft) 91,49 %
11.04.2018 12:12 11,3 C 10,6 C 10,0 C 95 % 0 lf 1006,0 hPa 0,0 l/m 0 min 0 min 32 W/m 9,0 km/h (2 Bft) 95,74 %
11.04.2018 12:14 11,3 C 10,6 C 10,0 C 95 % 0 lf 1006,0 hPa 0,0 l/m 0 min 0 min 28 W/m 9,0 km/h (2 Bft) 91,30 %
11.04.2018 12:16 11,3 C 10,6 C 10,0 C 95 % 0 lf 1006,0 hPa 0,0 l/m 0 min 0 min 27 W/m 6,8 km/h (2 Bft) 91,49 %
11.04.2018 12:18 11,3 C 10,6 C 10,0 C 95 % 0 lf 1006,0 hPa 0,0 l/m 0 min 0 min 32 W/m 9,0 km/h (2 Bft) 93,62 %
11.04.2018 12:20 11,2 C 10,6 C 10,0 C 95 % 0 lf 1006,0 hPa 0,0 l/m 0 min 0 min 35 W/m 9,0 km/h (2 Bft) 95,74 %
11.04.2018 12:22 11,2 C 10,6 C 10,0 C 95 % 0 lf 1006,0 hPa 0,0 l/m 0 min 0 min 39 W/m 6,8 km/h (2 Bft) 93,62 %
11.04.2018 12:24 11,2 C 11,1 C 10,0 C 95 % 0 lf 1006,0 hPa 0,0 l/m 0 min 0 min 39 W/m 4,5 km/h (1 Bft) 97,96 %
11.04.2018 12:26 11,2 C 11,1 C 10,6 C 95 % 0 lf 1006,0 hPa 0,0 l/m 0 min 0 min 33 W/m 6,8 km/h (2 Bft) 97,83 %
11.04.2018 12:28 11,3 C 11,1 C 10,6 C 95 % 0 lf 1006,0 hPa 0,0 l/m 0 min 0 min 30 W/m 6,8 km/h (2 Bft) 97,87 %
11.04.2018 12:30 11,3 C 10,6 C 10,0 C 95 % 0 lf 1006,0 hPa 0,0 l/m 0 min 0 min 32 W/m 9,0 km/h (2 Bft) 97,87 %
11.04.2018 12:32 11,3 C 10,6 C 10,0 C 95 % 0 lf 1006,0 hPa 0,0 l/m 0 min 0 min 33 W/m 9,0 km/h (2 Bft) 95,74 %
11.04.2018 12:34 11,3 C 11,1 C 10,0 C 95 % 0 lf 1006,0 hPa 0,0 l/m 0 min 0 min 39 W/m 11,3 km/h (2 Bft) 100,00 %
11.04.2018 12:36 11,3 C 11,1 C 10,0 C 95 % 0 lf 1006,0 hPa 0,0 l/m 0 min 0 min 46 W/m 9,0 km/h (2 Bft) 94,92 %
11.04.2018 12:38 11,3 C 10,6 C 10,0 C 95 % 0 lf 1006,0 hPa 0,0 l/m 0 min 0 min 45 W/m 9,0 km/h (2 Bft) 97,83 %
11.04.2018 12:40 11,3 C 11,1 C 10,0 C 94 % 0 lf 1006,0 hPa 0,0 l/m 0 min 0 min 43 W/m 9,0 km/h (2 Bft) 97,87 %
11.04.2018 12:42 11,3 C 10,6 C 10,0 C 94 % 0 lf 1006,0 hPa 0,0 l/m 0 min 0 min 44 W/m 11,3 km/h (2 Bft) 100,00 %
11.04.2018 12:44 11,2 C 10,6 C 10,0 C 94 % 0 lf 1006,0 hPa 0,0 l/m 0 min 0 min 40 W/m 6,8 km/h (2 Bft) 94,92 %
11.04.2018 12:46 11,2 C 10,6 C 10,0 C 94 % 0 lf 1006,0 hPa 0,0 l/m 0 min 0 min 38 W/m 11,3 km/h (2 Bft) 97,87 %
11.04.2018 12:48 11,2 C 10,6 C 10,0 C 95 % 0 lf 1006,0 hPa 0,0 l/m 0 min 0 min 34 W/m 13,5 km/h (3 Bft) 97,87 %
11.04.2018 12:50 11,2 C 10,6 C 10,0 C 95 % 0 lf 1006,0 hPa 0,0 l/m 0 min 0 min 37 W/m 11,3 km/h (2 Bft) 95,65 %
11.04.2018 12:52 11,2 C 10,6 C 10,0 C 94 % 0 lf 1006,0 hPa 0,0 l/m 0 min 0 min 40 W/m 9,0 km/h (2 Bft) 95,74 %
11.04.2018 12:54 11,1 C 10,6 C 10,0 C 95 % 0 lf 1006,0 hPa 0,0 l/m 0 min 0 min 41 W/m 9,0 km/h (2 Bft) 100,00 %
11.04.2018 12:56 11,1 C 10,6 C 10,0 C 95 % 0 lf 1006,0 hPa 0,0 l/m 0 min 0 min 47 W/m 13,5 km/h (3 Bft) 100,00 %
11.04.2018 12:58 11,1 C 10,6 C 10,0 C 95 % 0 lf 1006,0 hPa 0,0 l/m 0 min 0 min 51 W/m 13,5 km/h (3 Bft) 100,00 %
11.04.2018 13:00 11,1 C 10,6 C 10,0 C 95 % 0 lf 1006,0 hPa 0,0 l/m 0 min 0 min 44 W/m 11,3 km/h (2 Bft) 97,83 %
11.04.2018 13:02 11,1 C 10,6 C 10,0 C 95 % 0 lf 1006,1 hPa 0,0 l/m 0 min 0 min 38 W/m 13,5 km/h (3 Bft) 97,87 %
11.04.2018 13:04 11,1 C 10,6 C 10,0 C 95 % 0 lf 1006,1 hPa 0,0 l/m 0 min 0 min 35 W/m 11,3 km/h (2 Bft) 100,00 %
11.04.2018 13:06 11,0 C 10,6 C 9,4 C 95 % 0 lf 1006,1 hPa 0,0 l/m 0 min 0 min 33 W/m 13,5 km/h (3 Bft) 98,31 %
11.04.2018 13:08 10,9 C 10,0 C 9,4 C 94 % 0 lf 1006,1 hPa 0,0 l/m 0 min 0 min 32 W/m 11,3 km/h (2 Bft) 97,87 %
11.04.2018 13:10 10,9 C 10,0 C 9,4 C 94 % 0 lf 1006,1 hPa 0,0 l/m 0 min 0 min 33 W/m 13,5 km/h (3 Bft) 94,29 %
11.04.2018 13:12 10,9 C 10,0 C 9,4 C 94 % 0 lf 1006,1 hPa 0,0 l/m 0 min 0 min 33 W/m 15,8 km/h (3 Bft) 98,28 %
11.04.2018 13:14 10,8 C 10,0 C 9,4 C 94 % 0 lf 1006,1 hPa 0,0 l/m 0 min 0 min 34 W/m 15,8 km/h (3 Bft) 97,87 %
11.04.2018 13:16 10,7 C 10,0 C 8,9 C 94 % 0 lf 1006,0 hPa 0,0 l/m 0 min 0 min 36 W/m 15,8 km/h (3 Bft) 100,00 %
11.04.2018 13:18 10,6 C 10,0 C 8,9 C 94 % 0 lf 1006,1 hPa 0,0 l/m 0 min 0 min 37 W/m 11,3 km/h (2 Bft) 100,00 %
11.04.2018 13:20 10,6 C 10,0 C 9,4 C 94 % 0 lf 1006,0 hPa 0,0 l/m 0 min 0 min 37 W/m 11,3 km/h (2 Bft) 100,00 %
11.04.2018 13:22 10,6 C 10,0 C 9,4 C 94 % 0 lf 1006,1 hPa 0,0 l/m 0 min 0 min 37 W/m 11,3 km/h (2 Bft) 98,31 %
11.04.2018 13:24 10,5 C 10,0 C 9,4 C 94 % 0 lf 1006,1 hPa 0,0 l/m 0 min 0 min 40 W/m 11,3 km/h (2 Bft) 100,00 %
11.04.2018 13:26 10,5 C 10,0 C 9,4 C 94 % 0 lf 1006,1 hPa 0,0 l/m 0 min 0 min 46 W/m 15,8 km/h (3 Bft) 94,44 %
11.04.2018 13:28 10,4 C 10,0 C 9,4 C 94 % 0 lf 1006,0 hPa 0,0 l/m 0 min 0 min 62 W/m 15,8 km/h (3 Bft) 96,55 %
11.04.2018 13:30 10,4 C 10,6 C 9,4 C 94 % 0 lf 1006,0 hPa 0,0 l/m 0 min 0 min 92 W/m 11,3 km/h (2 Bft) 100,00 %
11.04.2018 13:32 10,4 C 10,6 C 10,0 C 95 % 0 lf 1006,0 hPa 0,0 l/m 0 min 0 min 112 W/m 15,8 km/h (3 Bft) 95,74 %
11.04.2018 13:34 10,4 C 10,6 C 10,0 C 95 % 0 lf 1006,0 hPa 0,0 l/m 0 min 0 min 99 W/m 11,3 km/h (2 Bft) 97,14 %
11.04.2018 13:36 10,4 C 10,6 C 10,0 C 95 % 1 lf 1006,0 hPa 0,0 l/m 0 min 0 min 71 W/m 11,3 km/h (2 Bft) 98,28 %
11.04.2018 13:38 10,4 C 10,0 C 10,0 C 95 % 0 lf 1006,0 hPa 0,0 l/m 0 min 0 min 52 W/m 11,3 km/h (2 Bft) 95,74 %
11.04.2018 13:40 10,4 C 10,0 C 9,4 C 95 % 1 lf 1006,0 hPa 0,0 l/m 0 min 0 min 47 W/m 20,3 km/h (4 Bft) 91,43 %
11.04.2018 13:42 10,3 C 10,0 C 9,4 C 95 % 0 lf 1006,0 hPa 0,0 l/m 0 min 0 min 47 W/m 18,0 km/h (3 Bft) 93,62 %
11.04.2018 13:44 10,3 C 9,4 C 8,9 C 95 % 0 lf 1006,0 hPa 0,0 l/m 0 min 0 min 44 W/m 18,0 km/h (3 Bft) 93,22 %
11.04.2018 13:46 10,3 C 9,4 C 8,9 C 95 % 0 lf 1006,0 hPa 0,0 l/m 0 min 0 min 44 W/m 18,0 km/h (3 Bft) 95,74 %
11.04.2018 13:48 10,2 C 10,0 C 8,9 C 95 % 0 lf 1006,0 hPa 0,0 l/m 0 min 0 min 42 W/m 13,5 km/h (3 Bft) 95,65 %
11.04.2018 13:50 10,2 C 10,0 C 9,4 C 95 % 0 lf 1006,0 hPa 0,0 l/m 0 min 0 min 40 W/m 13,5 km/h (3 Bft) 94,44 %
11.04.2018 13:52 10,2 C 10,0 C 9,4 C 95 % 0 lf 1006,0 hPa 0,0 l/m 0 min 0 min 37 W/m 9,0 km/h (2 Bft) 94,83 %
11.04.2018 13:54 10,2 C 10,0 C 9,4 C 95 % 0 lf 1006,0 hPa 0,0 l/m 0 min 0 min 39 W/m 11,3 km/h (2 Bft) 95,74 %
11.04.2018 13:56 10,2 C 10,0 C 9,4 C 95 % 0 lf 1006,0 hPa 0,0 l/m 0 min 0 min 43 W/m 13,5 km/h (3 Bft) 93,62 %
11.04.2018 13:58 10,2 C 10,0 C 9,4 C 95 % 2 lf 1005,9 hPa 0,0 l/m 0 min 0 min 46 W/m 13,5 km/h (3 Bft) 97,14 %
11.04.2018 14:00 10,2 C 10,0 C 9,4 C 95 % 2 lf 1006,0 hPa 0,0 l/m 0 min 0 min 46 W/m 13,5 km/h (3 Bft) 93,10 %
11.04.2018 14:02 10,2 C 10,0 C 9,4 C 95 % 1 lf 1006,0 hPa 0,0 l/m 0 min 0 min 50 W/m 13,5 km/h (3 Bft) 93,62 %
11.04.2018 14:04 10,2 C 10,0 C 9,4 C 95 % 0 lf 1006,0 hPa 0,0 l/m 0 min 0 min 53 W/m 11,3 km/h (2 Bft) 95,74 %
11.04.2018 14:06 10,2 C 10,6 C 9,4 C 95 % 0 lf 1005,9 hPa 0,0 l/m 0 min 0 min 55 W/m 13,5 km/h (3 Bft) 93,62 %
11.04.2018 14:08 10,2 C 10,6 C 9,4 C 95 % 1 lf 1005,9 hPa 0,0 l/m 0 min 0 min 62 W/m 9,0 km/h (2 Bft) 95,74 %
11.04.2018 14:10 10,2 C 10,6 C 10,0 C 95 % 0 lf 1005,9 hPa 0,0 l/m 0 min 0 min 62 W/m 9,0 km/h (2 Bft) 95,74 %
11.04.2018 14:12 10,3 C 10,6 C 10,0 C 95 % 0 lf 1005,9 hPa 0,0 l/m 0 min 0 min 60 W/m 11,3 km/h (2 Bft) 97,83 %
11.04.2018 14:14 10,3 C 10,6 C 9,4 C 95 % 0 lf 1005,9 hPa 0,0 l/m 0 min 0 min 52 W/m 11,3 km/h (2 Bft) 94,44 %
11.04.2018 14:16 10,3 C 10,6 C 9,4 C 95 % 0 lf 1005,9 hPa 0,0 l/m 0 min 0 min 50 W/m 11,3 km/h (2 Bft) 96,55 %
11.04.2018 14:18 10,3 C 10,6 C 10,0 C 95 % 0 lf 1005,9 hPa 0,0 l/m 0 min 0 min 57 W/m 9,0 km/h (2 Bft) 97,87 %
11.04.2018 14:20 10,3 C 11,1 C 10,0 C 95 % 0 lf 1005,8 hPa 0,0 l/m 0 min 0 min 60 W/m 9,0 km/h (2 Bft) 97,87 %
11.04.2018 14:22 10,4 C 11,1 C 10,0 C 95 % 0 lf 1005,8 hPa 0,0 l/m 0 min 0 min 67 W/m 6,8 km/h (2 Bft) 95,65 %
11.04.2018 14:24 10,4 C 11,7 C 10,0 C 95 % 0 lf 1005,8 hPa 0,0 l/m 0 min 0 min 85 W/m 9,0 km/h (2 Bft) 97,87 %
11.04.2018 14:26 10,4 C 11,7 C 10,6 C 95 % 0 lf 1005,8 hPa 0,0 l/m 0 min 0 min 106 W/m 11,3 km/h (2 Bft) 97,87 %
11.04.2018 14:28 10,4 C 11,7 C 10,6 C 96 % 0 lf 1005,8 hPa 0,0 l/m 0 min 0 min 112 W/m 13,5 km/h (3 Bft) 100,00 %
11.04.2018 14:30 10,5 C 11,7 C 10,6 C 96 % 0 lf 1005,8 hPa 0,0 l/m 0 min 0 min 109 W/m 9,0 km/h (2 Bft) 95,74 %
11.04.2018 14:32 10,5 C 12,2 C 10,6 C 96 % 0 lf 1005,8 hPa 0,0 l/m 0 min 0 min 96 W/m 11,3 km/h (2 Bft) 100,00 %
11.04.2018 14:34 10,6 C 12,2 C 10,6 C 96 % 0 lf 1005,8 hPa 0,0 l/m 0 min 0 min 85 W/m 9,0 km/h (2 Bft) 97,83 %
11.04.2018 14:36 10,6 C 12,2 C 10,6 C 96 % 0 lf 1005,8 hPa 0,0 l/m 0 min 0 min 76 W/m 4,5 km/h (1 Bft) 100,00 %
11.04.2018 14:38 10,6 C 12,2 C 10,6 C 96 % 0 lf 1005,8 hPa 0,0 l/m 0 min 0 min 72 W/m 6,8 km/h (2 Bft) 97,87 %
11.04.2018 14:40 10,7 C 12,2 C 10,6 C 96 % 0 lf 1005,8 hPa 0,0 l/m 0 min 0 min 73 W/m 9,0 km/h (2 Bft) 97,14 %
11.04.2018 14:42 10,7 C 12,2 C 10,6 C 96 % 0 lf 1005,8 hPa 0,0 l/m 0 min 0 min 74 W/m 6,8 km/h (2 Bft) 94,92 %
11.04.2018 14:44 10,7 C 12,2 C 10,6 C 96 % 1 lf 1005,8 hPa 0,0 l/m 0 min 0 min 71 W/m 11,3 km/h (2 Bft) 97,87 %
11.04.2018 14:46 10,8 C 12,2 C 10,6 C 96 % 1 lf 1005,7 hPa 0,0 l/m 0 min 0 min 71 W/m 9,0 km/h (2 Bft) 97,83 %
11.04.2018 14:48 10,8 C 12,2 C 10,6 C 96 % 0 lf 1005,7 hPa 0,0 l/m 0 min 0 min 81 W/m 11,3 km/h (2 Bft) 95,74 %
11.04.2018 14:50 10,8 C 12,2 C 10,6 C 96 % 2 lf 1005,8 hPa 0,0 l/m 0 min 0 min 88 W/m 9,0 km/h (2 Bft) 93,62 %
11.04.2018 14:52 10,8 C 12,2 C 11,1 C 96 % 1 lf 1005,7 hPa 0,0 l/m 0 min 0 min 98 W/m 6,8 km/h (2 Bft) 93,62 %
11.04.2018 14:54 10,8 C 12,2 C 11,1 C 96 % 1 lf 1005,7 hPa 0,0 l/m 0 min 0 min 110 W/m 6,8 km/h (2 Bft) 97,14 %
11.04.2018 14:56 10,9 C 12,2 C 11,1 C 96 % 3 lf 1005,6 hPa 0,0 l/m 0 min 0 min 110 W/m 9,0 km/h (2 Bft) 96,61 %
11.04.2018 14:58 10,9 C 12,8 C 11,1 C 96 % 3 lf 1005,6 hPa 0,0 l/m 0 min 2 min 99 W/m 9,0 km/h (2 Bft) 95,65 %
11.04.2018 15:00 10,9 C 12,8 C 10,6 C 96 % 3 lf 1005,6 hPa 0,0 l/m 0 min 2 min 83 W/m 9,0 km/h (2 Bft) 97,87 %
11.04.2018 15:02 11,0 C 12,2 C 10,6 C 96 % 3 lf 1005,6 hPa 0,0 l/m 0 min 0 min 68 W/m 9,0 km/h (2 Bft) 97,14 %
11.04.2018 15:04 11,0 C 12,2 C 10,6 C 96 % 2 lf 1005,6 hPa 0,0 l/m 0 min 0 min 60 W/m 11,3 km/h (2 Bft) 98,31 %
11.04.2018 15:06 11,0 C 12,2 C 10,6 C 96 % 1 lf 1005,6 hPa 0,0 l/m 0 min 2 min 55 W/m 9,0 km/h (2 Bft) 93,62 %
11.04.2018 15:08 11,0 C 12,2 C 10,0 C 96 % 2 lf 1005,6 hPa 0,0 l/m 0 min 0 min 50 W/m 11,3 km/h (2 Bft) 93,62 %
11.04.2018 15:10 11,1 C 11,7 C 10,0 C 96 % 3 lf 1005,5 hPa 0,0 l/m 0 min 0 min 44 W/m 6,8 km/h (2 Bft) 97,83 %
11.04.2018 15:12 11,0 C 11,7 C 10,0 C 96 % 4 lf 1005,5 hPa 0,0 l/m 0 min 2 min 41 W/m 4,5 km/h (1 Bft) 95,74 %
11.04.2018 15:14 11,1 C 11,7 C 10,0 C 96 % 6 lf 1005,6 hPa 0,0 l/m 0 min 2 min 42 W/m 2,3 km/h (1 Bft) 95,74 %
11.04.2018 15:16 11,1 C 11,7 C 10,0 C 96 % 7 lf 1005,5 hPa 0,0 l/m 0 min 0 min 46 W/m 0,0 km/h (0 Bft) 95,74 %
11.04.2018 15:18 11,1 C 11,7 C 10,0 C 96 % 8 lf 1005,5 hPa 0,0 l/m 0 min 0 min 46 W/m 4,5 km/h (1 Bft) 91,49 %
11.04.2018 15:20 11,1 C 11,1 C 10,0 C 96 % 7 lf 1005,5 hPa 0,0 l/m 0 min 0 min 42 W/m 6,8 km/h (2 Bft) 100,00 %
11.04.2018 15:22 11,1 C 11,1 C 10,0 C 96 % 6 lf 1005,4 hPa 0,0 l/m 0 min 0 min 41 W/m 4,5 km/h (1 Bft) 93,10 %
11.04.2018 15:24 11,1 C 11,1 C 10,0 C 96 % 4 lf 1005,5 hPa 0,0 l/m 0 min 0 min 45 W/m 6,8 km/h (2 Bft) 95,74 %
11.04.2018 15:26 11,1 C 11,1 C 10,0 C 96 % 3 lf 1005,4 hPa 0,0 l/m 0 min 0 min 49 W/m 6,8 km/h (2 Bft) 94,29 %
11.04.2018 15:28 11,1 C 11,1 C 10,6 C 96 % 3 lf 1005,4 hPa 0,0 l/m 0 min 0 min 55 W/m 6,8 km/h (2 Bft) 93,22 %
11.04.2018 15:30 11,1 C 11,1 C 10,6 C 96 % 2 lf 1005,5 hPa 0,0 l/m 0 min 0 min 58 W/m 4,5 km/h (1 Bft) 97,87 %
11.04.2018 15:32 11,1 C 11,7 C 10,6 C 96 % 1 lf 1005,5 hPa 0,0 l/m 0 min 0 min 53 W/m 4,5 km/h (1 Bft) 95,65 %
11.04.2018 15:34 11,1 C 11,7 C 10,0 C 96 % 0 lf 1005,5 hPa 0,0 l/m 0 min 0 min 44 W/m 9,0 km/h (2 Bft) 95,74 %
11.04.2018 15:36 11,1 C 11,7 C 10,0 C 96 % 0 lf 1005,5 hPa 0,0 l/m 0 min 0 min 42 W/m 6,8 km/h (2 Bft) 95,74 %
11.04.2018 15:38 11,1 C 11,7 C 10,6 C 96 % 0 lf 1005,5 hPa 0,0 l/m 0 min 0 min 54 W/m 9,0 km/h (2 Bft) 93,62 %
11.04.2018 15:40 11,1 C 11,7 C 10,6 C 96 % 0 lf 1005,4 hPa 0,0 l/m 0 min 0 min 74 W/m 6,8 km/h (2 Bft) 94,29 %
11.04.2018 15:42 11,2 C 12,2 C 10,6 C 96 % 0 lf 1005,4 hPa 0,0 l/m 0 min 0 min 69 W/m 4,5 km/h (1 Bft) 93,22 %
11.04.2018 15:44 11,2 C 11,7 C 10,6 C 96 % 0 lf 1005,5 hPa 0,0 l/m 0 min 0 min 56 W/m 6,8 km/h (2 Bft) 94,29 %
11.04.2018 15:46 11,2 C 12,2 C 10,6 C 96 % 0 lf 1005,5 hPa 0,0 l/m 0 min 0 min 53 W/m 2,3 km/h (1 Bft) 95,74 %
11.04.2018 15:48 11,2 C 12,2 C 10,6 C 96 % 0 lf 1005,5 hPa 0,0 l/m 0 min 0 min 57 W/m 0,0 km/h (0 Bft) 94,83 %
11.04.2018 15:50 11,2 C 12,2 C 10,6 C 96 % 0 lf 1005,4 hPa 0,0 l/m 0 min 0 min 73 W/m 0,0 km/h (0 Bft) 95,74 %
11.04.2018 15:52 11,2 C 12,8 C 11,1 C 96 % 0 lf 1005,5 hPa 0,0 l/m 0 min 0 min 96 W/m 0,0 km/h (0 Bft) 95,74 %
11.04.2018 15:54 11,3 C 12,8 C 11,7 C 96 % 0 lf 1005,4 hPa 0,0 l/m 0 min 0 min 123 W/m 0,0 km/h (0 Bft) 95,74 %
11.04.2018 15:56 11,3 C 13,3 C 11,7 C 96 % 0 lf 1005,5 hPa 0,0 l/m 0 min 0 min 131 W/m 0,0 km/h (0 Bft) 93,48 %
11.04.2018 15:58 11,3 C 13,3 C 11,7 C 96 % 0 lf 1005,4 hPa 0,0 l/m 0 min 0 min 134 W/m 4,5 km/h (1 Bft) 89,36 %
11.04.2018 16:00 11,3 C 13,3 C 12,2 C 96 % 0 lf 1005,4 hPa 0,0 l/m 0 min 0 min 143 W/m 4,5 km/h (1 Bft) 93,02 %
11.04.2018 16:02 11,4 C 13,3 C 12,2 C 96 % 0 lf 1005,3 hPa 0,0 l/m 0 min 0 min 139 W/m 4,5 km/h (1 Bft) 95,74 %
11.04.2018 16:04 11,4 C 13,3 C 12,2 C 96 % 0 lf 1005,3 hPa 0,0 l/m 0 min 0 min 127 W/m 4,5 km/h (1 Bft) 95,74 %
11.04.2018 16:06 11,4 C 13,9 C 12,2 C 96 % 0 lf 1005,3 hPa 0,0 l/m 0 min 0 min 146 W/m 0,0 km/h (0 Bft) 93,62 %
11.04.2018 16:08 11,5 C 13,9 C 12,8 C 96 % 0 lf 1005,3 hPa 0,0 l/m 0 min 0 min 125 W/m 4,5 km/h (1 Bft) 95,74 %
11.04.2018 16:10 11,6 C 14,4 C 12,2 C 96 % 0 lf 1005,2 hPa 0,0 l/m 0 min 0 min 108 W/m 4,5 km/h (1 Bft) 95,65 %
11.04.2018 16:12 11,6 C 13,9 C 12,2 C 96 % 0 lf 1005,3 hPa 0,0 l/m 0 min 0 min 118 W/m 4,5 km/h (1 Bft) 95,74 %
11.04.2018 16:14 11,6 C 13,3 C 12,2 C 96 % 0 lf 1005,3 hPa 0,0 l/m 0 min 0 min 129 W/m 4,5 km/h (1 Bft) 93,62 %
11.04.2018 16:16 11,7 C 13,9 C 12,2 C 96 % 0 lf 1005,3 hPa 0,0 l/m 0 min 0 min 137 W/m 2,3 km/h (1 Bft) 91,49 %
11.04.2018 16:18 11,7 C 14,4 C 12,8 C 96 % 0 lf 1005,3 hPa 0,0 l/m 0 min 0 min 170 W/m 4,5 km/h (1 Bft) 95,74 %
11.04.2018 16:20 11,8 C 15,6 C 13,3 C 96 % 0 lf 1005,2 hPa 0,0 l/m 0 min 0 min 213 W/m 2,3 km/h (1 Bft) 97,87 %
11.04.2018 16:22 11,8 C 15,0 C 13,3 C 96 % 0 lf 1005,3 hPa 0,0 l/m 0 min 0 min 192 W/m 2,3 km/h (1 Bft) 95,65 %
11.04.2018 16:24 11,9 C 15,0 C 13,9 C 96 % 0 lf 1005,3 hPa 0,0 l/m 0 min 0 min 163 W/m 6,8 km/h (2 Bft) 95,74 %
11.04.2018 16:26 11,9 C 14,4 C 13,3 C 96 % 0 lf 1005,3 hPa 0,0 l/m 0 min 0 min 131 W/m 6,8 km/h (2 Bft) 95,74 %
11.04.2018 16:28 12,0 C 13,9 C 12,8 C 96 % 0 lf 1005,3 hPa 0,0 l/m 0 min 0 min 107 W/m 9,0 km/h (2 Bft) 93,62 %
11.04.2018 16:30 12,1 C 13,9 C 12,8 C 96 % 0 lf 1005,3 hPa 0,0 l/m 0 min 0 min 115 W/m 9,0 km/h (2 Bft) 97,87 %
11.04.2018 16:32 12,1 C 13,9 C 12,8 C 96 % 0 lf 1005,3 hPa 0,0 l/m 0 min 0 min 122 W/m 9,0 km/h (2 Bft) 95,65 %
11.04.2018 16:34 12,1 C 14,4 C 13,3 C 96 % 0 lf 1005,3 hPa 0,0 l/m 0 min 0 min 201 W/m 6,8 km/h (2 Bft) 95,74 %
11.04.2018 16:38 12,3 C 15,6 C 14,4 C 96 % 0 lf 1005,2 hPa 0,0 l/m 0 min 0 min 209 W/m 11,3 km/h (2 Bft) 97,87 %
11.04.2018 16:40 12,4 C 16,1 C 14,4 C 96 % 0 lf 1005,2 hPa 0,0 l/m 2 min 0 min 382 W/m 15,8 km/h (3 Bft) 97,87 %
11.04.2018 16:42 12,4 C 16,7 C 15,0 C 96 % 0 lf 1005,1 hPa 0,0 l/m 2 min 0 min 399 W/m 9,0 km/h (2 Bft) 93,62 %
11.04.2018 16:44 12,6 C 16,7 C 15,6 C 96 % 0 lf 1005,1 hPa 0,0 l/m 2 min 0 min 314 W/m 13,5 km/h (3 Bft) 97,83 %
11.04.2018 16:46 12,7 C 15,6 C 15,0 C 96 % 0 lf 1005,1 hPa 0,0 l/m 2 min 0 min 288 W/m 15,8 km/h (3 Bft) 95,74 %
11.04.2018 16:48 12,7 C 15,0 C 14,4 C 96 % 0 lf 1005,0 hPa 0,0 l/m 0 min 0 min 231 W/m 11,3 km/h (2 Bft) 100,00 %
11.04.2018 16:50 12,8 C 15,0 C 14,4 C 95 % 0 lf 1005,1 hPa 0,0 l/m 0 min 0 min 181 W/m 13,5 km/h (3 Bft) 97,87 %
11.04.2018 16:52 12,8 C 14,4 C 14,4 C 95 % 0 lf 1005,1 hPa 0,0 l/m 0 min 0 min 203 W/m 20,3 km/h (4 Bft) 100,00 %
11.04.2018 16:54 12,8 C 13,9 C 14,4 C 95 % 0 lf 1005,1 hPa 0,0 l/m 0 min 0 min 203 W/m 15,8 km/h (3 Bft) 100,00 %
11.04.2018 16:56 12,9 C 13,9 C 14,4 C 94 % 0 lf 1005,0 hPa 0,0 l/m 0 min 0 min 173 W/m 13,5 km/h (3 Bft) 93,48 %
11.04.2018 16:58 12,9 C 13,9 C 13,9 C 94 % 0 lf 1005,0 hPa 0,0 l/m 0 min 0 min 151 W/m 11,3 km/h (2 Bft) 97,87 %
11.04.2018 17:00 12,9 C 13,9 C 13,9 C 94 % 0 lf 1005,0 hPa 0,0 l/m 0 min 0 min 146 W/m 18,0 km/h (3 Bft) 100,00 %
11.04.2018 17:02 12,9 C 13,9 C 13,9 C 93 % 0 lf 1005,0 hPa 0,0 l/m 0 min 0 min 140 W/m 20,3 km/h (4 Bft) 100,00 %
11.04.2018 17:04 13,0 C 13,9 C 13,9 C 93 % 0 lf 1005,0 hPa 0,0 l/m 0 min 0 min 147 W/m 15,8 km/h (3 Bft) 100,00 %
11.04.2018 17:06 13,0 C 13,9 C 14,4 C 92 % 0 lf 1005,0 hPa 0,0 l/m 0 min 0 min 155 W/m 13,5 km/h (3 Bft) 100,00 %
11.04.2018 17:08 13,0 C 13,9 C 14,4 C 92 % 0 lf 1005,0 hPa 0,0 l/m 0 min 0 min 155 W/m 18,0 km/h (3 Bft) 95,65 %
11.04.2018 17:10 13,1 C 13,9 C 14,4 C 92 % 0 lf 1005,0 hPa 0,0 l/m 0 min 0 min 149 W/m 13,5 km/h (3 Bft) 100,00 %
11.04.2018 17:12 13,1 C 14,4 C 14,4 C 92 % 0 lf 1005,0 hPa 0,0 l/m 0 min 0 min 151 W/m 11,3 km/h (2 Bft) 100,00 %
11.04.2018 17:14 13,1 C 14,4 C 14,4 C 92 % 0 lf 1004,9 hPa 0,0 l/m 0 min 0 min 159 W/m 13,5 km/h (3 Bft) 100,00 %
11.04.2018 17:16 13,2 C 14,4 C 15,0 C 92 % 0 lf 1004,9 hPa 0,0 l/m 0 min 0 min 168 W/m 11,3 km/h (2 Bft) 97,87 %
11.04.2018 17:18 13,2 C 13,9 C 14,4 C 91 % 0 lf 1004,9 hPa 0,0 l/m 0 min 0 min 162 W/m 15,8 km/h (3 Bft) 97,87 %
11.04.2018 17:20 13,2 C 13,9 C 14,4 C 91 % 0 lf 1004,9 hPa 0,0 l/m 0 min 0 min 170 W/m 20,3 km/h (4 Bft) 100,00 %
11.04.2018 17:22 13,2 C 13,9 C 14,4 C 91 % 0 lf 1004,9 hPa 0,0 l/m 0 min 0 min 171 W/m 13,5 km/h (3 Bft) 100,00 %
11.04.2018 17:24 13,2 C 13,9 C 14,4 C 91 % 0 lf 1004,9 hPa 0,0 l/m 0 min 0 min 168 W/m 13,5 km/h (3 Bft) 95,74 %
11.04.2018 17:26 13,2 C 13,9 C 14,4 C 90 % 0 lf 1005,0 hPa 0,0 l/m 0 min 0 min 157 W/m 13,5 km/h (3 Bft) 97,87 %
11.04.2018 17:28 13,2 C 13,9 C 14,4 C 90 % 0 lf 1004,9 hPa 0,0 l/m 0 min 0 min 147 W/m 15,8 km/h (3 Bft) 100,00 %
11.04.2018 17:30 13,2 C 13,9 C 14,4 C 90 % 0 lf 1004,9 hPa 0,0 l/m 0 min 0 min 153 W/m 15,8 km/h (3 Bft) 100,00 %
11.04.2018 17:32 13,2 C 13,9 C 14,4 C 90 % 0 lf 1004,9 hPa 0,0 l/m 0 min 0 min 162 W/m 11,3 km/h (2 Bft) 97,83 %
11.04.2018 17:34 13,2 C 13,9 C 15,0 C 90 % 0 lf 1004,8 hPa 0,0 l/m 0 min 0 min 159 W/m 18,0 km/h (3 Bft) 100,00 %
11.04.2018 17:36 13,3 C 13,9 C 14,4 C 90 % 0 lf 1004,8 hPa 0,0 l/m 0 min 0 min 150 W/m 20,3 km/h (4 Bft) 95,74 %
11.04.2018 17:38 13,3 C 13,9 C 14,4 C 90 % 0 lf 1004,9 hPa 0,0 l/m 0 min 0 min 158 W/m 15,8 km/h (3 Bft) 100,00 %
11.04.2018 17:40 13,3 C 13,9 C 14,4 C 90 % 0 lf 1004,9 hPa 0,0 l/m 0 min 0 min 148 W/m 18,0 km/h (3 Bft) 100,00 %
11.04.2018 17:42 13,3 C 13,9 C 14,4 C 90 % 0 lf 1004,9 hPa 0,0 l/m 0 min 0 min 140 W/m 24,8 km/h (4 Bft) 100,00 %
11.04.2018 17:44 13,3 C 13,9 C 14,4 C 90 % 0 lf 1004,8 hPa 0,0 l/m 0 min 0 min 129 W/m 18,0 km/h (3 Bft) 97,87 %
11.04.2018 17:46 13,3 C 13,9 C 14,4 C 90 % 0 lf 1004,9 hPa 0,0 l/m 0 min 0 min 180 W/m 20,3 km/h (4 Bft) 95,74 %
11.04.2018 17:48 13,3 C 13,9 C 14,4 C 89 % 0 lf 1004,8 hPa 0,0 l/m 2 min 0 min 260 W/m 22,5 km/h (4 Bft) 100,00 %
11.04.2018 17:50 13,4 C 14,4 C 15,0 C 89 % 0 lf 1004,8 hPa 0,0 l/m 2 min 0 min 279 W/m 20,3 km/h (4 Bft) 95,74 %
11.04.2018 17:52 13,4 C 14,4 C 15,0 C 89 % 0 lf 1004,8 hPa 0,0 l/m 2 min 0 min 261 W/m 15,8 km/h (3 Bft) 97,87 %
11.04.2018 17:54 13,5 C 14,4 C 15,0 C 89 % 0 lf 1004,8 hPa 0,0 l/m 2 min 0 min 275 W/m 18,0 km/h (3 Bft) 93,62 %
11.04.2018 17:56 13,6 C 15,0 C 15,0 C 89 % 0 lf 1004,8 hPa 0,0 l/m 2 min 0 min 217 W/m 15,8 km/h (3 Bft) 97,83 %
11.04.2018 17:58 13,6 C 15,0 C 15,0 C 89 % 0 lf 1004,8 hPa 0,0 l/m 2 min 0 min 222 W/m 18,0 km/h (3 Bft) 100,00 %
11.04.2018 18:00 13,7 C 14,4 C 14,4 C 88 % 0 lf 1004,7 hPa 0,0 l/m 2 min 0 min 214 W/m 13,5 km/h (3 Bft) 97,87 %
11.04.2018 18:02 13,7 C 14,4 C 14,4 C 88 % 0 lf 1004,7 hPa 0,0 l/m 2 min 0 min 217 W/m 18,0 km/h (3 Bft) 97,87 %
11.04.2018 18:04 13,7 C 14,4 C 14,4 C 88 % 0 lf 1004,7 hPa 0,0 l/m 2 min 0 min 197 W/m 18,0 km/h (3 Bft) 95,74 %
11.04.2018 18:06 13,8 C 15,0 C 14,4 C 88 % 0 lf 1004,7 hPa 0,0 l/m 2 min 0 min 172 W/m 20,3 km/h (4 Bft) 100,00 %
11.04.2018 18:08 13,9 C 15,0 C 13,9 C 88 % 0 lf 1004,8 hPa 0,0 l/m 0 min 0 min 163 W/m 15,8 km/h (3 Bft) 91,49 %
11.04.2018 18:10 13,9 C 14,4 C 13,9 C 87 % 0 lf 1004,7 hPa 0,0 l/m 2 min 0 min 168 W/m 13,5 km/h (3 Bft) 95,74 %
11.04.2018 18:12 14,0 C 14,4 C 13,9 C 87 % 0 lf 1004,7 hPa 0,0 l/m 2 min 0 min 182 W/m 13,5 km/h (3 Bft) 95,74 %
11.04.2018 18:14 14,0 C 14,4 C 13,9 C 87 % 0 lf 1004,7 hPa 0,0 l/m 0 min 0 min 104 W/m 11,3 km/h (2 Bft) 93,62 %
11.04.2018 18:16 14,1 C 13,9 C 13,3 C 86 % 0 lf 1004,7 hPa 0,0 l/m 0 min 0 min 126 W/m 13,5 km/h (3 Bft) 93,62 %
11.04.2018 18:18 14,1 C 13,9 C 13,3 C 86 % 0 lf 1004,6 hPa 0,0 l/m 0 min 0 min 154 W/m 13,5 km/h (3 Bft) 93,48 %
11.04.2018 18:20 14,1 C 13,9 C 13,3 C 86 % 0 lf 1004,6 hPa 0,0 l/m 0 min 0 min 132 W/m 13,5 km/h (3 Bft) 91,49 %
11.04.2018 18:22 14,1 C 13,9 C 13,3 C 86 % 0 lf 1004,6 hPa 0,0 l/m 2 min 0 min 159 W/m 11,3 km/h (2 Bft) 93,62 %
11.04.2018 18:24 14,1 C 13,9 C 13,3 C 86 % 0 lf 1004,6 hPa 0,0 l/m 2 min 0 min 168 W/m 20,3 km/h (4 Bft) 93,62 %
11.04.2018 18:26 14,2 C 13,9 C 13,3 C 86 % 0 lf 1004,6 hPa 0,0 l/m 2 min 0 min 163 W/m 11,3 km/h (2 Bft) 91,49 %
11.04.2018 18:28 14,2 C 13,9 C 13,3 C 86 % 0 lf 1004,6 hPa 0,0 l/m 0 min 0 min 135 W/m 13,5 km/h (3 Bft) 97,87 %
11.04.2018 18:30 14,2 C 13,9 C 13,3 C 86 % 0 lf 1004,6 hPa 0,0 l/m 0 min 0 min 110 W/m 6,8 km/h (2 Bft) 95,65 %
11.04.2018 18:32 14,2 C 13,9 C 13,3 C 86 % 0 lf 1004,6 hPa 0,0 l/m 2 min 0 min 139 W/m 9,0 km/h (2 Bft) 93,62 %
11.04.2018 18:34 14,2 C 13,9 C 13,3 C 86 % 0 lf 1004,5 hPa 0,0 l/m 0 min 0 min 134 W/m 15,8 km/h (3 Bft) 95,74 %
11.04.2018 18:36 14,2 C 13,9 C 13,3 C 86 % 0 lf 1004,5 hPa 0,0 l/m 0 min 0 min 133 W/m 13,5 km/h (3 Bft) 91,49 %
11.04.2018 18:38 14,2 C 13,9 C 13,3 C 86 % 0 lf 1004,5 hPa 0,0 l/m 0 min 0 min 130 W/m 11,3 km/h (2 Bft) 89,36 %
11.04.2018 18:40 14,2 C 13,9 C 13,3 C 86 % 0 lf 1004,6 hPa 0,0 l/m 0 min 0 min 124 W/m 15,8 km/h (3 Bft) 93,62 %
11.04.2018 18:42 14,2 C 13,9 C 12,8 C 85 % 0 lf 1004,6 hPa 0,0 l/m 0 min 0 min 117 W/m 15,8 km/h (3 Bft) 93,48 %
11.04.2018 18:44 14,2 C 13,9 C 12,8 C 85 % 0 lf 1004,6 hPa 0,0 l/m 0 min 0 min 116 W/m 13,5 km/h (3 Bft) 93,62 %
11.04.2018 18:46 14,2 C 13,9 C 12,8 C 85 % 0 lf 1004,6 hPa 0,0 l/m 0 min 0 min 114 W/m 11,3 km/h (2 Bft) 89,36 %
11.04.2018 18:48 14,2 C 13,9 C 12,8 C 85 % 0 lf 1004,5 hPa 0,0 l/m 0 min 0 min 107 W/m 15,8 km/h (3 Bft) 93,62 %
11.04.2018 18:50 14,2 C 13,9 C 12,8 C 85 % 0 lf 1004,6 hPa 0,0 l/m 0 min 0 min 87 W/m 18,0 km/h (3 Bft) 93,62 %
11.04.2018 18:52 14,2 C 13,9 C 12,8 C 84 % 0 lf 1004,6 hPa 0,0 l/m 0 min 0 min 97 W/m 13,5 km/h (3 Bft) 91,49 %
11.04.2018 18:54 14,2 C 13,9 C 12,8 C 84 % 0 lf 1004,6 hPa 0,0 l/m 0 min 0 min 96 W/m 9,0 km/h (2 Bft) 89,13 %
11.04.2018 18:56 14,2 C 13,9 C 12,8 C 84 % 0 lf 1004,5 hPa 0,0 l/m 0 min 0 min 91 W/m 13,5 km/h (3 Bft) 91,49 %
11.04.2018 18:58 14,2 C 13,9 C 12,8 C 84 % 0 lf 1004,5 hPa 0,0 l/m 0 min 0 min 93 W/m 13,5 km/h (3 Bft) 93,62 %
11.04.2018 19:00 14,2 C 13,9 C 12,8 C 84 % 0 lf 1004,5 hPa 0,0 l/m 0 min 0 min 75 W/m 13,5 km/h (3 Bft) 93,62 %
11.04.2018 19:02 14,2 C 13,9 C 12,8 C 84 % 0 lf 1004,5 hPa 0,0 l/m 0 min 0 min 75 W/m 6,8 km/h (2 Bft) 93,62 %
11.04.2018 19:04 14,2 C 13,3 C 12,2 C 84 % 0 lf 1004,4 hPa 0,0 l/m 0 min 0 min 60 W/m 18,0 km/h (3 Bft) 91,49 %
11.04.2018 19:06 14,2 C 13,3 C 12,2 C 84 % 0 lf 1004,5 hPa 0,0 l/m 0 min 0 min 56 W/m 9,0 km/h (2 Bft) 91,30 %
11.04.2018 19:08 14,2 C 13,3 C 12,2 C 84 % 0 lf 1004,5 hPa 0,0 l/m 0 min 0 min 49 W/m 15,8 km/h (3 Bft) 95,74 %
11.04.2018 19:10 14,1 C 13,3 C 12,2 C 84 % 0 lf 1004,4 hPa 0,0 l/m 0 min 0 min 49 W/m 13,5 km/h (3 Bft) 95,74 %
11.04.2018 19:12 14,1 C 13,3 C 12,2 C 84 % 0 lf 1004,4 hPa 0,0 l/m 0 min 0 min 49 W/m 15,8 km/h (3 Bft) 95,74 %
11.04.2018 19:14 14,1 C 13,3 C 12,2 C 84 % 0 lf 1004,4 hPa 0,0 l/m 0 min 0 min 48 W/m 11,3 km/h (2 Bft) 97,87 %
11.04.2018 19:16 14,0 C 13,3 C 12,2 C 85 % 0 lf 1004,4 hPa 0,0 l/m 0 min 0 min 54 W/m 6,8 km/h (2 Bft) 95,74 %
11.04.2018 19:18 14,0 C 13,3 C 12,2 C 85 % 0 lf 1004,4 hPa 0,0 l/m 0 min 0 min 58 W/m 9,0 km/h (2 Bft) 97,83 %
11.04.2018 19:22 13,9 C 13,3 C 12,2 C 85 % 0 lf 1004,4 hPa 0,0 l/m 0 min 0 min 49 W/m 11,3 km/h (2 Bft) 97,83 %
11.04.2018 19:24 13,9 C 13,3 C 12,2 C 85 % 0 lf 1004,4 hPa 0,0 l/m 0 min 0 min 50 W/m 11,3 km/h (2 Bft) 97,16 %
11.04.2018 19:26 13,9 C 13,3 C 12,2 C 85 % 0 lf 1004,4 hPa 0,0 l/m 0 min 0 min 49 W/m 9,0 km/h (2 Bft) 100,00 %
11.04.2018 19:28 13,8 C 13,3 C 12,2 C 85 % 0 lf 1004,4 hPa 0,0 l/m 0 min 0 min 41 W/m 9,0 km/h (2 Bft) 100,00 %
11.04.2018 19:30 13,8 C 13,3 C 12,2 C 85 % 0 lf 1004,3 hPa 0,0 l/m 0 min 0 min 32 W/m 9,0 km/h (2 Bft) 97,87 %
11.04.2018 19:32 13,8 C 12,8 C 12,2 C 85 % 0 lf 1004,4 hPa 0,0 l/m 0 min 0 min 30 W/m 11,3 km/h (2 Bft) 97,87 %
11.04.2018 19:34 13,8 C 12,8 C 11,7 C 85 % 0 lf 1004,4 hPa 0,0 l/m 0 min 0 min 28 W/m 11,3 km/h (2 Bft) 100,00 %
11.04.2018 19:36 13,7 C 12,8 C 11,7 C 85 % 0 lf 1004,4 hPa 0,0 l/m 0 min 0 min 28 W/m 9,0 km/h (2 Bft) 100,00 %
11.04.2018 19:38 13,7 C 12,8 C 11,7 C 86 % 0 lf 1004,3 hPa 0,0 l/m 0 min 0 min 26 W/m 11,3 km/h (2 Bft) 97,87 %
11.04.2018 19:40 13,7 C 12,8 C 11,7 C 86 % 0 lf 1004,4 hPa 0,0 l/m 0 min 0 min 26 W/m 9,0 km/h (2 Bft) 100,00 %
11.04.2018 19:42 13,6 C 12,8 C 11,7 C 86 % 0 lf 1004,3 hPa 0,0 l/m 0 min 0 min 25 W/m 9,0 km/h (2 Bft) 100,00 %
11.04.2018 19:44 13,6 C 12,8 C 11,1 C 86 % 0 lf 1004,3 hPa 0,0 l/m 0 min 0 min 24 W/m 9,0 km/h (2 Bft) 97,87 %
11.04.2018 19:46 13,6 C 12,8 C 11,1 C 86 % 0 lf 1004,3 hPa 0,0 l/m 0 min 0 min 23 W/m 9,0 km/h (2 Bft) 100,00 %
11.04.2018 19:48 13,5 C 12,8 C 11,1 C 86 % 0 lf 1004,4 hPa 0,0 l/m 0 min 0 min 22 W/m 6,8 km/h (2 Bft) 100,00 %
11.04.2018 19:50 13,5 C 12,2 C 11,1 C 86 % 0 lf 1004,3 hPa 0,0 l/m 0 min 0 min 21 W/m 9,0 km/h (2 Bft) 97,87 %
11.04.2018 19:52 13,5 C 12,2 C 11,1 C 86 % 0 lf 1004,3 hPa 0,0 l/m 0 min 0 min 19 W/m 6,8 km/h (2 Bft) 97,83 %
11.04.2018 19:54 13,4 C 12,2 C 10,6 C 86 % 0 lf 1004,3 hPa 0,0 l/m 0 min 0 min 18 W/m 6,8 km/h (2 Bft) 97,87 %
11.04.2018 19:56 13,4 C 12,2 C 10,6 C 86 % 0 lf 1004,3 hPa 0,0 l/m 0 min 0 min 17 W/m 4,5 km/h (1 Bft) 93,62 %
11.04.2018 19:58 13,4 C 12,2 C 10,6 C 86 % 0 lf 1004,3 hPa 0,0 l/m 0 min 0 min 16 W/m 9,0 km/h (2 Bft) 100,00 %
11.04.2018 20:00 13,3 C 12,2 C 10,6 C 87 % 0 lf 1004,3 hPa 0,0 l/m 0 min 0 min 15 W/m 4,5 km/h (1 Bft) 100,00 %
11.04.2018 20:02 13,3 C 12,2 C 10,6 C 87 % 0 lf 1004,3 hPa 0,0 l/m 0 min 0 min 13 W/m 4,5 km/h (1 Bft) 97,87 %
11.04.2018 20:04 13,3 C 12,2 C 10,0 C 86 % 0 lf 1004,3 hPa 0,0 l/m 0 min 0 min 12 W/m 4,5 km/h (1 Bft) 97,83 %
11.04.2018 20:06 13,2 C 12,2 C 10,0 C 87 % 0 lf 1004,3 hPa 0,0 l/m 0 min 0 min 12 W/m 4,5 km/h (1 Bft) 97,87 %
11.04.2018 20:08 13,2 C 12,2 C 10,0 C 87 % 0 lf 1004,3 hPa 0,0 l/m 0 min 0 min 11 W/m 4,5 km/h (1 Bft) 95,74 %
11.04.2018 20:10 13,2 C 11,7 C 9,4 C 87 % 0 lf 1004,3 hPa 0,0 l/m 0 min 0 min 11 W/m 4,5 km/h (1 Bft) 97,87 %
11.04.2018 20:12 13,2 C 11,7 C 9,4 C 87 % 0 lf 1004,3 hPa 0,0 l/m 0 min 0 min 9 W/m 2,3 km/h (1 Bft) 97,87 %
11.04.2018 20:14 13,1 C 11,7 C 9,4 C 87 % 0 lf 1004,3 hPa 0,0 l/m 0 min 0 min 9 W/m 4,5 km/h (1 Bft) 95,74 %
11.04.2018 20:16 13,1 C 11,7 C 9,4 C 87 % 0 lf 1004,3 hPa 0,0 l/m 0 min 0 min 7 W/m 4,5 km/h (1 Bft) 97,83 %
11.04.2018 20:18 13,1 C 11,7 C 8,9 C 87 % 0 lf 1004,3 hPa 0,0 l/m 0 min 0 min 7 W/m 4,5 km/h (1 Bft) 97,87 %
11.04.2018 20:20 13,0 C 11,7 C 8,9 C 87 % 0 lf 1004,3 hPa 0,0 l/m 0 min 0 min 5 W/m 4,5 km/h (1 Bft) 97,87 %
11.04.2018 20:22 13,0 C 11,7 C 8,9 C 87 % 0 lf 1004,3 hPa 0,0 l/m 0 min 0 min 5 W/m 4,5 km/h (1 Bft) 97,87 %
11.04.2018 20:24 12,9 C 11,1 C 8,9 C 87 % 0 lf 1004,3 hPa 0,0 l/m 0 min 0 min 5 W/m 4,5 km/h (1 Bft) 97,87 %
11.04.2018 20:26 12,9 C 11,1 C 8,9 C 87 % 0 lf 1004,3 hPa 0,0 l/m 0 min 0 min 3 W/m 4,5 km/h (1 Bft) 95,65 %
11.04.2018 20:28 12,8 C 10,6 C 8,3 C 86 % 0 lf 1004,3 hPa 0,0 l/m 0 min 0 min 0 W/m 4,5 km/h (1 Bft) 97,87 %
11.04.2018 20:30 12,8 C 10,6 C 8,3 C 86 % 0 lf 1004,3 hPa 0,0 l/m 0 min 0 min 0 W/m 4,5 km/h (1 Bft) 97,87 %
11.04.2018 20:32 12,7 C 10,6 C 8,3 C 86 % 0 lf 1004,3 hPa 0,0 l/m 0 min 0 min 0 W/m 2,3 km/h (1 Bft) 97,87 %
11.04.2018 20:34 12,7 C 10,6 C 8,3 C 86 % 0 lf 1004,3 hPa 0,0 l/m 0 min 0 min 0 W/m 0,0 km/h (0 Bft) 97,87 %
11.04.2018 20:36 12,6 C 10,6 C 8,3 C 86 % 0 lf 1004,4 hPa 0,0 l/m 0 min 0 min 0 W/m 2,3 km/h (1 Bft) 97,87 %
11.04.2018 20:38 12,6 C 10,6 C 8,3 C 86 % 0 lf 1004,4 hPa 0,0 l/m 0 min 0 min 0 W/m 2,3 km/h (1 Bft) 97,83 %
11.04.2018 20:40 12,5 C 10,6 C 7,8 C 87 % 0 lf 1004,3 hPa 0,0 l/m 0 min 0 min 0 W/m 2,3 km/h (1 Bft) 97,87 %
11.04.2018 20:42 12,5 C 10,6 C 7,8 C 87 % 0 lf 1004,4 hPa 0,0 l/m 0 min 0 min 0 W/m 2,3 km/h (1 Bft) 100,00 %
11.04.2018 20:44 12,4 C 10,6 C 7,8 C 87 % 1 lf 1004,3 hPa 0,0 l/m 0 min 0 min 0 W/m 2,3 km/h (1 Bft) 100,00 %
11.04.2018 20:46 12,4 C 10,0 C 7,8 C 86 % 1 lf 1004,3 hPa 0,0 l/m 0 min 0 min 0 W/m 0,0 km/h (0 Bft) 100,00 %
11.04.2018 20:48 12,3 C 10,0 C 7,8 C 86 % 1 lf 1004,4 hPa 0,0 l/m 0 min 0 min 0 W/m 0,0 km/h (0 Bft) 97,87 %
11.04.2018 20:50 12,3 C 10,0 C 7,8 C 86 % 1 lf 1004,4 hPa 0,0 l/m 0 min 0 min 0 W/m 0,0 km/h (0 Bft) 100,00 %
11.04.2018 20:52 12,2 C 10,0 C 7,8 C 87 % 1 lf 1004,4 hPa 0,0 l/m 0 min 0 min 0 W/m 0,0 km/h (0 Bft) 100,00 %
11.04.2018 20:54 12,2 C 10,0 C 8,3 C 87 % 1 lf 1004,4 hPa 0,0 l/m 0 min 0 min 0 W/m 4,5 km/h (1 Bft) 97,87 %
11.04.2018 20:56 12,1 C 10,0 C 7,8 C 87 % 1 lf 1004,4 hPa 0,0 l/m 0 min 0 min 0 W/m 4,5 km/h (1 Bft) 97,87 %
11.04.2018 20:58 12,1 C 10,0 C 7,8 C 87 % 1 lf 1004,4 hPa 0,0 l/m 0 min 0 min 0 W/m 4,5 km/h (1 Bft) 100,00 %
11.04.2018 21:00 12,0 C 10,0 C 7,8 C 87 % 1 lf 1004,4 hPa 0,0 l/m 0 min 0 min 0 W/m 4,5 km/h (1 Bft) 97,87 %
11.04.2018 21:02 11,9 C 9,4 C 7,8 C 87 % 1 lf 1004,4 hPa 0,0 l/m 0 min 0 min 0 W/m 4,5 km/h (1 Bft) 97,83 %
11.04.2018 21:04 11,9 C 9,4 C 7,8 C 88 % 1 lf 1004,4 hPa 0,0 l/m 0 min 0 min 0 W/m 4,5 km/h (1 Bft) 97,87 %
11.04.2018 21:06 11,8 C 9,4 C 7,2 C 88 % 1 lf 1004,5 hPa 0,0 l/m 0 min 0 min 0 W/m 4,5 km/h (1 Bft) 97,87 %
11.04.2018 21:08 11,8 C 9,4 C 7,2 C 88 % 1 lf 1004,5 hPa 0,0 l/m 0 min 0 min 0 W/m 4,5 km/h (1 Bft) 97,87 %
11.04.2018 21:10 11,7 C 9,4 C 7,2 C 88 % 1 lf 1004,5 hPa 0,0 l/m 0 min 0 min 0 W/m 4,5 km/h (1 Bft) 97,87 %
11.04.2018 21:12 11,7 C 9,4 C 7,2 C 88 % 1 lf 1004,5 hPa 0,0 l/m 0 min 0 min 0 W/m 4,5 km/h (1 Bft) 100,00 %
11.04.2018 21:14 11,6 C 9,4 C 7,2 C 88 % 2 lf 1004,5 hPa 0,0 l/m 0 min 0 min 0 W/m 4,5 km/h (1 Bft) 97,83 %
11.04.2018 21:16 11,6 C 9,4 C 7,2 C 88 % 2 lf 1004,4 hPa 0,0 l/m 0 min 0 min 0 W/m 4,5 km/h (1 Bft) 97,87 %
11.04.2018 21:18 11,6 C 9,4 C 7,2 C 88 % 2 lf 1004,5 hPa 0,0 l/m 0 min 0 min 0 W/m 4,5 km/h (1 Bft) 93,62 %
11.04.2018 21:20 11,5 C 9,4 C 7,2 C 88 % 2 lf 1004,5 hPa 0,0 l/m 0 min 0 min 0 W/m 6,8 km/h (2 Bft) 97,87 %
11.04.2018 21:22 11,4 C 9,4 C 7,2 C 88 % 2 lf 1004,5 hPa 0,0 l/m 0 min 0 min 0 W/m 6,8 km/h (2 Bft) 95,74 %
11.04.2018 21:24 11,4 C 9,4 C 7,2 C 88 % 2 lf 1004,5 hPa 0,0 l/m 0 min 0 min 0 W/m 9,0 km/h (2 Bft) 91,49 %
11.04.2018 21:26 11,3 C 9,4 C 7,2 C 88 % 3 lf 1004,4 hPa 0,0 l/m 0 min 0 min 0 W/m 6,8 km/h (2 Bft) 93,48 %
11.04.2018 21:28 11,3 C 9,4 C 7,2 C 88 % 3 lf 1004,5 hPa 0,0 l/m 0 min 0 min 0 W/m 6,8 km/h (2 Bft) 93,62 %
11.04.2018 21:30 11,3 C 10,0 C 7,2 C 89 % 3 lf 1004,5 hPa 0,0 l/m 0 min 0 min 0 W/m 6,8 km/h (2 Bft) 91,49 %
11.04.2018 21:32 11,2 C 10,0 C 7,2 C 89 % 3 lf 1004,6 hPa 0,0 l/m 0 min 0 min 0 W/m 6,8 km/h (2 Bft) 93,62 %
11.04.2018 21:34 11,2 C 10,0 C 7,2 C 89 % 3 lf 1004,5 hPa 0,0 l/m 0 min 0 min 0 W/m 6,8 km/h (2 Bft) 95,74 %
11.04.2018 21:36 11,2 C 10,0 C 7,2 C 89 % 3 lf 1004,5 hPa 0,0 l/m 0 min 0 min 0 W/m 9,0 km/h (2 Bft) 91,30 %
11.04.2018 21:38 11,2 C 10,0 C 7,2 C 89 % 3 lf 1004,6 hPa 0,0 l/m 0 min 0 min 0 W/m 9,0 km/h (2 Bft) 93,62 %
11.04.2018 21:40 11,1 C 10,0 C 7,2 C 89 % 3 lf 1004,5 hPa 0,0 l/m 0 min 0 min 0 W/m 9,0 km/h (2 Bft) 93,62 %
11.04.2018 21:42 11,1 C 10,0 C 7,2 C 90 % 3 lf 1004,6 hPa 0,0 l/m 0 min 0 min 0 W/m 9,0 km/h (2 Bft) 93,62 %
11.04.2018 21:44 11,1 C 10,0 C 7,2 C 90 % 3 lf 1004,5 hPa 0,0 l/m 0 min 0 min 0 W/m 6,8 km/h (2 Bft) 93,62 %
11.04.2018 21:46 11,0 C 10,0 C 7,2 C 90 % 3 lf 1004,6 hPa 0,0 l/m 0 min 0 min 0 W/m 6,8 km/h (2 Bft) 89,36 %
11.04.2018 21:48 11,0 C 9,4 C 7,2 C 90 % 3 lf 1004,6 hPa 0,0 l/m 0 min 0 min 0 W/m 6,8 km/h (2 Bft) 93,48 %
11.04.2018 21:50 10,9 C 9,4 C 7,2 C 90 % 3 lf 1004,5 hPa 0,0 l/m 0 min 0 min 0 W/m 4,5 km/h (1 Bft) 93,62 %
11.04.2018 21:52 10,9 C 9,4 C 7,2 C 90 % 3 lf 1004,5 hPa 0,0 l/m 0 min 0 min 0 W/m 6,8 km/h (2 Bft) 91,49 %
11.04.2018 21:54 10,9 C 9,4 C 7,2 C 90 % 3 lf 1004,5 hPa 0,0 l/m 0 min 0 min 0 W/m 4,5 km/h (1 Bft) 93,62 %
11.04.2018 21:56 10,9 C 9,4 C 7,2 C 90 % 3 lf 1004,5 hPa 0,0 l/m 0 min 0 min 0 W/m 4,5 km/h (1 Bft) 91,49 %
11.04.2018 21:58 10,8 C 9,4 C 7,2 C 90 % 3 lf 1004,5 hPa 0,0 l/m 0 min 0 min 0 W/m 4,5 km/h (1 Bft) 93,62 %
11.04.2018 22:00 10,8 C 8,9 C 6,7 C 90 % 3 lf 1004,5 hPa 0,0 l/m 0 min 0 min 0 W/m 4,5 km/h (1 Bft) 93,48 %
11.04.2018 22:02 10,8 C 8,9 C 6,7 C 90 % 3 lf 1004,4 hPa 0,0 l/m 0 min 0 min 0 W/m 4,5 km/h (1 Bft) 93,62 %
11.04.2018 22:04 10,7 C 8,9 C 6,7 C 90 % 3 lf 1004,5 hPa 0,0 l/m 0 min 0 min 0 W/m 4,5 km/h (1 Bft) 89,36 %
11.04.2018 22:06 10,7 C 8,9 C 6,7 C 90 % 3 lf 1004,5 hPa 0,0 l/m 0 min 0 min 0 W/m 4,5 km/h (1 Bft) 95,74 %
11.04.2018 22:08 10,7 C 8,9 C 6,7 C 90 % 3 lf 1004,4 hPa 0,0 l/m 0 min 0 min 0 W/m 6,8 km/h (2 Bft) 95,74 %
11.04.2018 22:10 10,6 C 8,9 C 6,7 C 90 % 4 lf 1004,4 hPa 0,0 l/m 0 min 0 min 0 W/m 6,8 km/h (2 Bft) 93,62 %
11.04.2018 22:12 10,6 C 8,9 C 6,7 C 90 % 4 lf 1004,4 hPa 0,0 l/m 0 min 0 min 0 W/m 6,8 km/h (2 Bft) 91,30 %
11.04.2018 22:14 10,6 C 8,9 C 6,7 C 90 % 4 lf 1004,4 hPa 0,0 l/m 0 min 0 min 0 W/m 4,5 km/h (1 Bft) 91,49 %
11.04.2018 22:16 10,5 C 8,9 C 6,7 C 90 % 4 lf 1004,4 hPa 0,0 l/m 0 min 0 min 0 W/m 4,5 km/h (1 Bft) 91,49 %
11.04.2018 22:18 10,4 C 8,9 C 6,7 C 90 % 4 lf 1004,4 hPa 0,0 l/m 0 min 0 min 0 W/m 4,5 km/h (1 Bft) 95,74 %
11.04.2018 22:20 10,4 C 8,9 C 6,7 C 90 % 4 lf 1004,3 hPa 0,0 l/m 0 min 0 min 0 W/m 4,5 km/h (1 Bft) 95,74 %
11.04.2018 22:22 10,4 C 8,3 C 6,7 C 90 % 4 lf 1004,4 hPa 0,0 l/m 0 min 0 min 0 W/m 4,5 km/h (1 Bft) 95,74 %
11.04.2018 22:24 10,4 C 8,3 C 6,7 C 91 % 4 lf 1004,3 hPa 0,0 l/m 0 min 0 min 0 W/m 4,5 km/h (1 Bft) 95,65 %
11.04.2018 22:26 10,3 C 8,3 C 6,7 C 91 % 4 lf 1004,3 hPa 0,0 l/m 0 min 0 min 0 W/m 4,5 km/h (1 Bft) 97,87 %
11.04.2018 22:28 10,3 C 8,3 C 6,7 C 91 % 5 lf 1004,4 hPa 0,0 l/m 0 min 0 min 0 W/m 4,5 km/h (1 Bft) 97,87 %
11.04.2018 22:30 10,3 C 8,3 C 6,1 C 90 % 5 lf 1004,4 hPa 0,0 l/m 0 min 0 min 0 W/m 4,5 km/h (1 Bft) 97,87 %
11.04.2018 22:32 10,2 C 8,3 C 6,1 C 90 % 6 lf 1004,4 hPa 0,0 l/m 0 min 0 min 0 W/m 4,5 km/h (1 Bft) 95,74 %
11.04.2018 22:34 10,2 C 8,3 C 6,1 C 90 % 6 lf 1004,4 hPa 0,0 l/m 0 min 0 min 0 W/m 4,5 km/h (1 Bft) 95,74 %
11.04.2018 22:36 10,2 C 8,3 C 6,1 C 90 % 7 lf 1004,4 hPa 0,0 l/m 0 min 0 min 0 W/m 4,5 km/h (1 Bft) 95,65 %
11.04.2018 22:38 10,1 C 8,3 C 6,1 C 90 % 8 lf 1004,4 hPa 0,0 l/m 0 min 0 min 0 W/m 4,5 km/h (1 Bft) 97,87 %
11.04.2018 22:40 10,1 C 8,3 C 6,1 C 91 % 8 lf 1004,3 hPa 0,0 l/m 0 min 0 min 0 W/m 4,5 km/h (1 Bft) 97,87 %
11.04.2018 22:42 10,1 C 8,3 C 6,1 C 91 % 9 lf 1004,4 hPa 0,0 l/m 0 min 0 min 0 W/m 2,3 km/h (1 Bft) 97,87 %
11.04.2018 22:44 10,0 C 8,3 C 6,1 C 91 % 9 lf 1004,3 hPa 0,0 l/m 0 min 0 min 0 W/m 2,3 km/h (1 Bft) 100,00 %
11.04.2018 22:46 10,0 C 8,3 C 6,1 C 91 % 10 lf 1004,3 hPa 0,0 l/m 0 min 0 min 0 W/m 2,3 km/h (1 Bft) 97,83 %
11.04.2018 22:48 9,9 C 7,8 C 6,1 C 91 % 10 lf 1004,4 hPa 0,0 l/m 0 min 0 min 0 W/m 2,3 km/h (1 Bft) 100,00 %
11.04.2018 22:50 9,9 C 7,8 C 5,6 C 90 % 10 lf 1004,4 hPa 0,0 l/m 0 min 0 min 0 W/m 0,0 km/h (0 Bft) 100,00 %
11.04.2018 22:52 9,9 C 7,8 C 5,6 C 90 % 11 lf 1004,3 hPa 0,0 l/m 0 min 0 min 0 W/m 0,0 km/h (0 Bft) 100,00 %
11.04.2018 22:54 9,8 C 7,8 C 5,6 C 90 % 11 lf 1004,3 hPa 0,0 l/m 0 min 0 min 0 W/m 0,0 km/h (0 Bft) 97,87 %
11.04.2018 22:56 9,8 C 7,8 C 5,6 C 91 % 12 lf 1004,4 hPa 0,0 l/m 0 min 0 min 0 W/m 0,0 km/h (0 Bft) 100,00 %
11.04.2018 22:58 9,8 C 8,3 C 6,1 C 91 % 12 lf 1004,4 hPa 0,0 l/m 0 min 0 min 0 W/m 0,0 km/h (0 Bft) 97,87 %
11.04.2018 23:00 9,7 C 7,8 C 5,6 C 91 % 12 lf 1004,4 hPa 0,0 l/m 0 min 0 min 0 W/m 0,0 km/h (0 Bft) 100,00 %
11.04.2018 23:02 9,7 C 7,8 C 5,6 C 91 % 13 lf 1004,3 hPa 0,0 l/m 0 min 0 min 0 W/m 0,0 km/h (0 Bft) 93,62 %
11.04.2018 23:04 9,7 C 7,8 C 6,1 C 91 % 13 lf 1004,3 hPa 0,0 l/m 0 min 0 min 0 W/m 0,0 km/h (0 Bft) 97,87 %
11.04.2018 23:06 9,6 C 7,8 C 5,6 C 91 % 13 lf 1004,2 hPa 0,0 l/m 0 min 0 min 0 W/m 0,0 km/h (0 Bft) 95,74 %
11.04.2018 23:08 9,6 C 7,8 C 5,6 C 91 % 14 lf 1004,3 hPa 0,0 l/m 0 min 0 min 0 W/m 0,0 km/h (0 Bft) 100,00 %
11.04.2018 23:10 9,6 C 7,8 C 5,6 C 91 % 14 lf 1004,2 hPa 0,0 l/m 0 min 0 min 0 W/m 0,0 km/h (0 Bft) 100,00 %
11.04.2018 23:12 9,5 C 7,2 C 5,6 C 91 % 14 lf 1004,3 hPa 0,0 l/m 0 min 0 min 0 W/m 0,0 km/h (0 Bft) 97,87 %
11.04.2018 23:14 9,5 C 7,2 C 5,6 C 91 % 14 lf 1004,2 hPa 0,0 l/m 0 min 0 min 0 W/m 0,0 km/h (0 Bft) 97,87 %
11.04.2018 23:16 9,4 C 7,2 C 5,6 C 91 % 14 lf 1004,2 hPa 0,0 l/m 0 min 0 min 0 W/m 2,3 km/h (1 Bft) 97,87 %
11.04.2018 23:18 9,4 C 7,8 C 5,6 C 91 % 14 lf 1004,1 hPa 0,0 l/m 0 min 0 min 0 W/m 2,3 km/h (1 Bft) 100,00 %
11.04.2018 23:20 9,4 C 7,2 C 5,6 C 91 % 14 lf 1004,1 hPa 0,0 l/m 0 min 0 min 0 W/m 2,3 km/h (1 Bft) 100,00 %
11.04.2018 23:22 9,3 C 7,2 C 5,6 C 91 % 14 lf 1004,1 hPa 0,0 l/m 0 min 0 min 0 W/m 0,0 km/h (0 Bft) 100,00 %
11.04.2018 23:24 9,3 C 7,2 C 5,6 C 91 % 15 lf 1004,1 hPa 0,0 l/m 0 min 0 min 0 W/m 0,0 km/h (0 Bft) 100,00 %
11.04.2018 23:26 9,3 C 7,2 C 5,6 C 91 % 15 lf 1004,1 hPa 0,0 l/m 0 min 0 min 0 W/m 0,0 km/h (0 Bft) 97,87 %
11.04.2018 23:28 9,2 C 7,2 C 5,6 C 91 % 15 lf 1004,1 hPa 0,0 l/m 0 min 0 min 0 W/m 0,0 km/h (0 Bft) 100,00 %
11.04.2018 23:30 9,2 C 7,2 C 5,6 C 91 % 15 lf 1004,1 hPa 0,0 l/m 0 min 0 min 0 W/m 0,0 km/h (0 Bft) 100,00 %
11.04.2018 23:32 9,2 C 7,2 C 5,6 C 91 % 15 lf 1004,1 hPa 0,0 l/m 0 min 0 min 0 W/m 0,0 km/h (0 Bft) 100,00 %
11.04.2018 23:34 9,1 C 7,2 C 5,6 C 91 % 15 lf 1004,1 hPa 0,0 l/m 0 min 0 min 0 W/m 0,0 km/h (0 Bft) 100,00 %
11.04.2018 23:36 9,1 C 7,2 C 5,6 C 91 % 15 lf 1004,1 hPa 0,0 l/m 0 min 0 min 0 W/m 4,5 km/h (1 Bft) 100,00 %
11.04.2018 23:38 9,1 C 7,2 C 5,6 C 91 % 15 lf 1004,0 hPa 0,0 l/m 0 min 0 min 0 W/m 2,3 km/h (1 Bft) 97,87 %
11.04.2018 23:40 9,0 C 6,7 C 5,0 C 91 % 15 lf 1004,1 hPa 0,0 l/m 0 min 0 min 0 W/m 2,3 km/h (1 Bft) 100,00 %
11.04.2018 23:42 8,9 C 6,7 C 5,0 C 91 % 15 lf 1004,0 hPa 0,0 l/m 0 min 0 min 0 W/m 4,5 km/h (1 Bft) 100,00 %
11.04.2018 23:44 8,9 C 6,7 C 5,0 C 91 % 15 lf 1004,0 hPa 0,0 l/m 0 min 0 min 0 W/m 4,5 km/h (1 Bft) 100,00 %
11.04.2018 23:46 8,9 C 6,7 C 5,0 C 91 % 15 lf 1004,0 hPa 0,0 l/m 0 min 0 min 0 W/m 4,5 km/h (1 Bft) 97,83 %
11.04.2018 23:48 8,8 C 6,7 C 5,0 C 91 % 15 lf 1004,0 hPa 0,0 l/m 0 min 0 min 0 W/m 4,5 km/h (1 Bft) 95,74 %
11.04.2018 23:50 8,8 C 6,7 C 5,0 C 91 % 15 lf 1003,9 hPa 0,0 l/m 0 min 0 min 0 W/m 6,8 km/h (2 Bft) 95,74 %
11.04.2018 23:52 8,7 C 7,2 C 5,0 C 91 % 15 lf 1003,9 hPa 0,0 l/m 0 min 0 min 0 W/m 4,5 km/h (1 Bft) 97,87 %
11.04.2018 23:54 8,7 C 7,2 C 5,0 C 91 % 15 lf 1003,9 hPa 0,0 l/m 0 min 0 min 0 W/m 4,5 km/h (1 Bft) 97,87 %
11.04.2018 23:56 8,7 C 6,7 C 5,0 C 91 % 15 lf 1003,9 hPa 0,0 l/m 0 min 0 min 0 W/m 6,8 km/h (2 Bft) 97,83 %
11.04.2018 23:58 8,7 C 6,7 C 5,0 C 91 % 15 lf 1003,7 hPa 0,0 l/m 0 min 0 min 0 W/m 6,8 km/h (2 Bft) 97,87 %
_ Min-Zeit 23:52 23:40 23:40 18:52 10:08 00:38 - - - - 02:34 00:02
Minimum _ 8,7 C 6,7 C 5,0 C 84 % 0 lf 1002,9 hPa - - - - 0,0 km/h (0 Bft) 10,00 %
_ Max-Zeit 18:26 16:42 16:44 00:00 00:00 13:02 00:14 16:40 00:08 16:42 00:38 00:12
Maximum _ 14,2 C 16,7 C 15,6 C 96 % 15 lf 1006,1 hPa 0,2 l/m 2 min 4 min 399 W/m 38,3 km/h
W (5 Bft)
100,00 %
Durchschnitt _ 11,2 C 10,7 C 9,7 C 94 % 7 lf 1004,9 hPa #1,2 l/m #40 min. #2:06 h 68 W/m 8,0 km/h (2 Bft) 96,35 %
© 2018 W. Hausmann